Laatste waarneming: 19:42
Temperatuur:15,2°C
Dauwpunt:10,2°C
Rel. vocht:72,0%
Natte-bol:12,8°C
Wind (gem. 10 min.):7,2 m/s
Wind (max. 10 min.): m/s
Windrichting:262°
Neerslagsom:1,4 mm
Neerslagintensiteit:0,0 mm/u
Luchtdruk:1008,5 hPa
Straling:245,9 W/m2
 
Maximumtemp.:15,4°C (17:39)
Minimumtemp.:11,9°C (11:13)
Hoogste windstoot:17,4 m/s (12:12)


Bekijk het Grafiekoverzicht.
Bekijk het Maandoverzicht.
Dagtabel
Tijd Temp. Dauwp. Natte-bol Rel. Hum. Windsnelh. Windricht. Windstoot Neerslag Straling Luchtdruk
 
19:42 15,2 10,2 12,8 72,0 7,2 262 - 1,4 246 1.008,5
19:41 15,2 10,4 12,9 72,8 7,1 262 - 1,4 248 1.008,5
19:40 15,2 10,0 12,7 71,3 7,0 261 - 1,4 249 1.008,5
19:39 15,2 10,0 12,6 71,0 6,7 262 - 1,4 252 1.008,5
19:38 15,2 10,0 12,6 71,0 6,8 262 - 1,4 253 1.008,6
19:37 15,2 10,0 12,6 71,0 7,3 263 - 1,4 257 1.008,5
19:36 15,2 10,1 12,7 71,6 8,3 265 - 1,4 260 1.008,5
19:35 15,3 10,3 12,8 72,0 8,5 268 - 1,4 265 1.008,4
19:34 15,3 10,3 12,8 72,0 8,6 270 - 1,4 267 1.008,5
19:33 15,4 10,7 13,2 73,7 8,4 268 - 1,4 268 1.008,4
19:32 15,3 10,4 12,9 72,4 8,1 263 - 1,4 270 1.008,4
19:31 15,3 10,1 12,7 71,0 7,9 258 - 1,4 272 1.008,3
19:30 15,3 10,2 12,8 71,6 7,1 255 - 1,4 274 1.008,0
19:29 15,3 10,4 12,9 72,8 7,3 256 - 1,4 277 1.008,0
19:28 15,3 10,3 12,9 72,1 7,4 257 - 1,4 281 1.008,0
19:27 15,3 10,3 12,9 72,2 8,0 258 - 1,4 282 1.008,0
19:26 15,3 10,4 12,9 72,7 8,2 261 - 1,4 284 1.007,9
19:25 15,2 10,2 12,8 72,0 7,8 266 - 1,4 287 1.008,0
19:24 15,2 10,2 12,8 72,0 7,6 267 - 1,4 289 1.007,9
19:23 15,2 10,4 12,9 73,0 7,6 267 - 1,4 296 1.007,9
19:22 15,2 10,2 12,8 72,1 8,2 266 - 1,4 263 1.007,9
19:21 15,2 10,2 12,8 72,2 8,5 264 - 1,4 206 1.007,9
19:20 15,2 10,4 12,9 73,0 8,8 264 - 1,4 273 1.007,8
19:19 15,2 10,3 12,8 72,5 8,7 264 - 1,4 305 1.007,8
19:18 15,2 10,2 12,8 72,0 8,7 264 - 1,4 183 1.007,8
19:17 15,3 10,4 12,9 72,8 8,4 264 - 1,4 213 1.007,8
19:16 15,3 10,5 13,0 73,1 8,3 264 - 1,4 325 1.007,8
19:15 15,3 10,7 13,1 74,2 8,4 265 - 1,4 324 1.007,8
19:14 15,4 11,0 13,3 75,0 8,7 267 - 1,4 321 1.007,7
19:13 15,3 10,7 13,1 74,0 8,7 268 - 1,4 317 1.007,7
19:12 15,3 10,6 13,1 73,7 8,6 268 - 1,4 317 1.007,7
19:11 15,3 10,7 13,1 74,0 8,3 269 - 1,4 323 1.007,7
19:10 15,3 10,5 13,0 73,1 8,2 272 - 1,4 324 1.007,7
19:09 15,3 10,6 13,0 73,5 8,5 276 - 1,4 326 1.007,8
19:08 15,4 10,8 13,2 74,2 8,6 278 - 1,4 329 1.007,7
19:07 15,3 10,5 13,0 73,0 8,2 279 - 1,4 329 1.007,8
19:06 15,4 10,6 13,1 73,0 7,9 278 - 1,4 330 1.007,7
19:05 15,4 10,9 13,3 74,6 7,7 276 - 1,4 336 1.007,8
19:04 15,3 10,7 13,1 74,0 7,5 272 - 1,4 337 1.007,8
19:03 15,3 10,5 13,0 73,0 7,4 268 - 1,4 340 1.007,7
19:02 15,3 10,6 13,0 73,4 8,0 266 - 1,4 343 1.007,7
19:01 15,3 10,6 13,0 73,5 8,5 266 - 1,4 346 1.007,6
19:00 15,2 10,4 12,9 73,0 8,7 267 - 1,4 347 1.007,6
 
18:59 15,3 10,5 13,0 73,0 9,0 269 - 1,4 344 1.007,7
18:58 15,3 10,5 13,0 72,9 9,0 271 - 1,4 342 1.007,7
18:57 15,3 10,3 12,9 72,3 8,7 272 - 1,4 355 1.007,8
18:56 15,3 10,5 13,0 73,0 8,3 271 - 1,4 355 1.007,7
18:55 15,3 10,5 13,0 73,0 8,1 268 - 1,4 365 1.007,7
18:54 15,3 10,3 12,9 72,3 8,0 265 - 1,4 360 1.007,7
18:53 15,3 10,3 12,8 72,0 7,7 264 - 1,4 363 1.007,7
18:52 15,3 10,3 12,9 72,2 7,7 262 - 1,4 367 1.007,7
18:51 15,4 10,7 13,1 73,4 8,2 261 - 1,4 367 1.007,7
18:50 15,4 10,7 13,1 73,6 8,6 260 - 1,4 371 1.007,7
18:49 15,4 10,6 13,1 73,0 8,0 258 - 1,4 377 1.007,7
18:48 15,4 10,6 13,1 73,0 7,2 256 - 1,4 385 1.007,8
18:47 15,3 10,3 12,8 72,0 6,9 251 - 1,4 387 1.007,7
18:46 15,3 10,3 12,9 72,2 7,0 246 - 1,4 390 1.007,7
18:45 15,3 10,5 13,0 73,3 6,6 245 - 1,4 390 1.007,9
18:44 15,4 10,7 13,1 73,6 7,1 247 - 1,4 392 1.007,9
18:43 15,3 10,4 12,9 72,4 8,0 251 - 1,4 396 1.007,9
18:42 15,3 10,3 12,8 72,0 9,0 254 - 1,4 396 1.007,9
18:41 15,3 10,3 12,9 72,1 9,2 258 - 1,4 398 1.007,9
18:40 15,4 10,5 13,0 72,8 8,7 262 - 1,4 400 1.007,9
18:39 15,3 10,4 12,9 72,4 8,4 264 - 1,4 402 1.007,9
18:38 15,3 10,5 13,0 73,0 8,6 264 - 1,4 404 1.007,9
18:37 15,4 10,7 13,2 73,7 8,8 264 - 1,4 406 1.007,9
18:36 15,4 10,6 13,1 73,2 8,7 264 - 1,4 409 1.007,9
18:35 15,3 10,5 13,0 73,0 8,4 263 - 1,4 410 1.007,8
18:34 15,3 10,5 13,0 73,0 8,2 260 - 1,4 413 1.007,8
18:33 15,3 10,5 13,0 73,0 8,0 257 - 1,4 416 1.007,8
18:32 15,3 10,4 12,9 72,5 7,9 253 - 1,4 418 1.007,7
18:31 15,4 10,6 13,1 73,3 7,9 251 - 1,4 420 1.007,8
18:30 15,4 10,6 13,1 73,2 7,8 252 - 1,4 423 1.007,7
18:29 15,4 10,6 13,1 73,0 7,8 253 - 1,4 426 1.007,8
18:28 15,4 10,6 13,1 73,0 8,2 255 - 1,4 430 1.007,7
18:27 15,4 10,7 13,1 73,4 8,3 258 - 1,4 435 1.007,7
18:26 15,4 10,7 13,1 73,5 8,3 260 - 1,4 438 1.007,7
18:25 15,3 10,5 13,0 73,0 8,5 259 - 1,4 441 1.007,8
18:24 15,3 10,7 13,1 73,8 8,3 258 - 1,4 443 1.007,7
18:23 15,3 10,7 13,1 74,0 7,6 258 - 1,4 451 1.007,8
18:22 15,3 10,7 13,1 74,0 7,3 258 - 1,4 457 1.007,7
18:21 15,3 10,6 13,1 73,6 7,7 259 - 1,4 461 1.007,7
18:20 15,2 10,4 12,9 73,0 8,7 260 - 1,4 457 1.007,7
18:19 15,3 10,5 13,0 73,0 9,4 262 - 1,4 376 1.007,7
18:18 15,3 10,5 13,0 73,0 9,5 263 - 1,4 407 1.007,7
18:17 15,3 10,5 13,0 73,2 9,1 260 - 1,4 471 1.007,7
18:16 15,3 10,6 13,1 73,7 8,9 257 - 1,4 482 1.007,7
18:15 15,3 10,5 13,0 73,0 7,6 255 - 1,4 476 1.007,7
18:14 15,4 10,7 13,1 73,6 7,5 250 - 1,4 473 1.007,7
18:13 15,4 10,6 13,1 73,3 8,1 246 - 1,4 477 1.007,6
18:12 15,4 10,4 13,0 72,2 7,9 246 11,2 1,4 494 1.007,7
18:11 15,3 10,3 12,8 72,0 7,2 249 - 1,4 508 1.007,7
18:10 15,4 10,4 13,0 72,3 7,1 251 - 1,4 502 1.007,6
18:09 15,4 10,7 13,1 73,5 8,4 253 - 1,4 495 1.007,6
18:08 15,4 10,8 13,2 74,0 8,2 258 - 1,4 492 1.007,6
18:07 15,4 10,6 13,1 73,2 8,1 262 - 1,4 493 1.007,6
18:06 15,3 10,5 13,0 73,1 7,9 261 - 1,4 494 1.007,6
18:05 15,3 10,7 13,1 73,8 8,1 258 - 1,4 493 1.007,5
18:04 15,3 10,5 13,0 73,3 7,7 258 - 1,4 495 1.007,5
18:03 15,3 10,7 13,1 74,0 8,3 258 - 1,4 496 1.007,6
18:02 15,3 10,6 13,0 73,4 8,5 258 - 1,4 500 1.007,5
18:01 15,3 10,5 13,0 73,0 8,8 256 - 1,4 513 1.007,5
18:00 15,4 10,8 13,2 73,9 8,8 256 - 1,4 513 1.007,5
 
17:59 15,4 10,5 13,0 72,8 8,4 256 - 1,4 515 1.007,5
17:58 15,3 10,2 12,8 71,7 7,8 255 - 1,4 514 1.007,5
17:57 15,3 10,2 12,8 71,6 8,2 254 - 1,4 513 1.007,5
17:56 15,3 10,2 12,8 71,4 8,8 254 - 1,4 519 1.007,7
17:55 15,3 10,4 12,9 72,6 8,8 256 - 1,4 523 1.007,7
17:54 15,4 10,6 13,1 73,0 8,3 258 - 1,4 526 1.007,7
17:53 15,3 10,3 12,9 72,3 8,0 260 - 1,4 529 1.007,8
17:52 15,3 10,4 12,9 72,7 7,9 260 - 1,4 532 1.007,8
17:51 15,2 10,2 12,8 72,0 7,8 256 - 1,4 534 1.007,5
17:50 15,3 10,4 12,9 72,7 7,2 253 - 1,4 534 1.007,3
17:49 15,3 10,3 12,9 72,2 7,6 250 - 1,4 534 1.007,3
17:48 15,3 10,5 13,0 73,0 8,3 249 - 1,4 534 1.007,2
17:47 15,3 10,5 13,0 73,0 8,4 250 - 1,4 538 1.007,2
17:46 15,3 10,5 13,0 73,0 8,3 252 - 1,4 546 1.007,2
17:45 15,3 10,5 13,0 73,0 8,4 256 - 1,4 553 1.007,2
17:44 15,3 10,5 13,0 73,0 8,7 258 - 1,4 553 1.007,2
17:43 15,3 10,5 13,0 73,0 8,4 257 - 1,4 545 1.007,2
17:42 15,3 10,3 12,9 72,1 7,7 255 - 1,4 545 1.007,2
17:41 15,3 10,3 12,8 72,0 6,9 254 - 1,4 550 1.007,2
17:40 15,3 10,4 12,9 72,4 7,1 252 - 1,4 552 1.007,2
17:39 15,4 10,7 13,1 73,6 7,6 252 - 1,4 551 1.007,2
17:38 15,3 10,5 13,0 73,3 7,9 252 - 1,4 555 1.007,2
17:37 15,3 10,7 13,1 73,9 8,0 254 - 1,4 556 1.007,1
17:36 15,3 10,5 13,0 73,1 8,6 256 - 1,4 558 1.007,1
17:35 15,3 10,4 12,9 72,7 8,6 254 - 1,4 561 1.007,1
17:34 15,3 10,4 12,9 72,5 7,7 254 - 1,4 565 1.007,1
17:33 15,3 10,6 13,1 73,6 7,1 254 - 1,4 566 1.007,2
17:32 15,3 10,7 13,1 74,0 6,9 253 - 1,4 568 1.007,2
17:31 15,3 10,7 13,1 74,0 6,9 250 - 1,4 571 1.007,2
17:30 15,3 10,7 13,1 73,9 7,6 250 - 1,4 575 1.007,1
17:29 15,3 10,5 13,0 73,0 8,3 252 - 1,4 580 1.007,1
17:28 15,3 10,5 13,0 73,0 7,9 254 - 1,4 584 1.007,1
17:27 15,3 10,6 13,1 73,6 7,5 253 - 1,4 591 1.007,1
17:26 15,3 10,5 13,0 73,3 7,6 252 - 1,4 592 1.007,1
17:25 15,2 10,2 12,8 72,2 8,0 250 - 1,4 589 1.007,0
17:24 15,2 10,5 13,0 73,6 7,7 249 - 1,4 614 1.007,0
17:23 15,2 10,2 12,8 72,0 7,7 246 - 1,4 628 1.007,0
17:22 15,2 10,3 12,8 72,5 7,8 243 - 1,4 633 1.007,0
17:21 15,2 10,5 13,0 73,6 8,2 240 - 1,4 675 1.007,0
17:20 15,3 10,7 13,1 74,0 8,1 242 - 1,4 678 1.007,0
17:19 15,3 10,8 13,2 74,7 7,9 245 - 1,4 692 1.007,0
17:18 15,3 10,7 13,1 74,0 7,6 248 - 1,4 707 1.007,0
17:17 15,3 10,7 13,1 74,0 7,9 251 - 1,4 707 1.007,0
17:16 15,3 10,7 13,1 74,0 8,1 255 - 1,4 707 1.007,0
17:15 15,2 10,5 12,9 73,4 8,1 255 - 1,4 711 1.007,0
17:14 15,2 10,6 13,0 73,8 8,7 252 - 1,4 752 1.006,9
17:13 15,2 10,4 12,9 73,1 8,4 249 - 1,4 777 1.006,8
17:12 15,2 10,6 13,0 74,0 8,2 249 - 1,4 600 1.006,9
17:11 15,1 10,6 13,0 74,6 8,6 251 - 1,4 452 1.006,9
17:10 15,2 10,8 13,1 75,0 8,0 252 - 1,4 452 1.006,9
17:09 15,1 10,6 13,0 74,4 7,9 253 - 1,4 452 1.006,9
17:08 15,0 10,2 12,7 73,2 8,1 255 - 1,4 452 1.006,9
17:07 14,9 10,1 12,6 73,2 8,3 256 - 1,4 462 1.006,9
17:06 15,0 10,6 12,9 74,8 8,6 255 - 1,4 467 1.006,9
17:05 15,0 10,4 12,8 74,0 8,9 253 - 1,4 413 1.006,9
17:04 15,0 10,5 12,9 74,6 9,4 252 - 1,4 396 1.006,8
17:03 15,0 10,5 12,8 74,3 9,6 253 - 1,4 417 1.006,8
17:02 14,9 10,3 12,7 74,0 9,2 255 - 1,4 533 1.006,9
17:01 14,9 10,3 12,7 74,0 8,5 256 - 1,4 533 1.006,9
17:00 14,9 10,2 12,7 73,7 8,3 256 - 1,4 533 1.006,9
 
16:59 14,9 10,2 12,7 73,5 8,3 255 - 1,4 535 1.006,9
16:58 15,0 10,4 12,8 74,0 8,4 255 - 1,4 550 1.006,9
16:57 15,0 10,5 12,9 74,7 8,8 255 - 1,4 560 1.006,8
16:56 15,0 10,6 12,9 75,0 9,4 254 - 1,4 610 1.006,8
16:55 14,9 10,5 12,8 75,0 9,1 253 - 1,4 674 1.006,9
16:54 14,9 10,4 12,8 74,7 8,5 254 - 1,4 425 1.006,9
16:53 14,8 10,3 12,7 74,5 8,4 254 - 1,4 251 1.006,8
16:52 14,9 10,5 12,8 75,0 8,7 254 - 1,4 629 1.006,7
16:51 14,8 10,6 12,9 75,9 8,8 254 - 1,4 671 1.006,7
16:50 14,8 10,6 12,9 76,0 8,8 255 - 1,4 681 1.006,8
16:49 14,8 10,8 13,0 77,0 9,0 256 - 1,4 483 1.006,7
16:48 14,8 10,7 12,9 76,7 8,7 257 - 1,4 265 1.006,8
16:47 14,7 10,4 12,7 75,6 8,4 259 - 1,4 254 1.006,7
16:46 14,7 10,2 12,6 74,3 8,1 262 - 1,4 227 1.006,7
16:45 14,7 10,3 12,6 74,8 8,0 264 - 1,4 214 1.006,7
16:44 14,8 10,4 12,7 75,0 8,4 264 12,1 1,4 208 1.006,7
16:43 14,8 10,4 12,7 75,0 9,1 263 - 1,4 207 1.006,7
16:42 14,9 10,5 12,8 75,0 9,4 261 - 1,4 208 1.006,6
16:41 14,9 10,5 12,8 75,0 9,3 260 - 1,4 756 1.006,6
16:40 14,9 10,5 12,8 75,0 9,3 256 - 1,4 893 1.006,6
16:39 14,8 10,6 12,8 75,8 8,9 254 - 1,4 886 1.006,6
16:38 14,7 10,5 12,8 76,0 8,5 255 11,6 1,4 886 1.006,6
16:37 14,6 10,3 12,6 75,3 8,5 257 - 1,4 541 1.006,6
16:36 14,6 10,4 12,6 75,7 8,8 259 - 1,4 287 1.006,6
16:35 14,6 10,2 12,5 75,0 9,7 260 - 1,4 270 1.006,6
16:34 14,7 10,5 12,7 75,7 9,7 261 - 1,4 247 1.006,6
16:33 14,6 10,3 12,6 75,2 9,6 262 - 1,4 229 1.006,6
16:32 14,6 10,4 12,7 76,0 9,4 262 - 1,4 222 1.006,6
16:31 14,6 10,4 12,7 76,0 9,3 261 - 1,4 222 1.006,6
16:30 14,6 10,4 12,6 75,7 9,2 261 - 1,4 222 1.006,6
16:29 14,6 10,2 12,5 75,0 8,8 262 - 1,4 216 1.006,6
16:28 14,6 10,2 12,5 75,0 9,0 262 - 1,4 211 1.006,5
16:27 14,6 10,2 12,5 75,0 9,4 261 - 1,4 255 1.006,5
16:26 14,6 10,2 12,5 75,0 9,4 260 - 1,4 320 1.006,5
16:25 14,6 10,2 12,5 75,0 8,7 259 - 1,4 320 1.006,5
16:24 14,6 10,2 12,5 75,0 8,6 259 - 1,4 320 1.006,5
16:23 14,7 10,5 12,7 75,7 8,8 258 - 1,4 318 1.006,5
16:22 14,6 10,3 12,6 75,3 9,4 259 - 1,4 283 1.006,5
16:21 14,6 10,2 12,5 75,0 9,9 260 - 1,4 257 1.006,4
16:20 14,6 10,2 12,5 75,0 10,2 258 - 1,4 257 1.006,4
16:19 14,6 10,2 12,5 75,0 10,0 252 - 1,4 281 1.006,4
16:18 14,6 10,2 12,5 75,0 8,3 246 - 1,4 318 1.006,4
16:17 14,6 10,2 12,5 75,0 8,5 241 - 1,4 355 1.006,4
16:16 14,6 10,4 12,6 75,7 9,3 239 - 1,4 392 1.006,4
16:15 14,5 10,2 12,5 75,2 9,8 240 - 1,4 378 1.006,3
16:14 14,5 10,1 12,5 75,0 9,7 247 - 1,4 336 1.006,3
16:13 14,6 10,2 12,5 74,7 9,4 255 - 1,4 290 1.006,3
16:12 14,5 9,9 12,3 74,0 10,2 262 - 1,4 283 1.006,3
16:11 14,6 10,0 12,4 74,0 10,6 267 - 1,4 272 1.006,3
16:10 14,6 10,0 12,4 74,0 11,2 270 - 1,4 267 1.006,2
16:09 14,6 9,9 12,4 73,4 11,2 269 - 1,4 263 1.006,2
16:08 14,6 10,1 12,5 74,3 10,5 268 - 1,4 503 1.006,2
16:07 14,7 10,5 12,8 76,0 9,8 269 - 1,4 751 1.006,2
16:06 14,8 10,6 12,9 76,0 10,0 269 - 1,4 751 1.006,1
16:05 14,7 10,5 12,8 76,0 10,5 267 - 1,4 751 1.006,1
16:04 14,7 10,4 12,7 75,3 10,8 265 - 1,4 780 1.006,2
16:03 14,7 10,5 12,8 75,9 10,5 265 - 1,4 868 1.006,2
16:02 14,7 10,5 12,8 76,0 10,5 264 - 1,4 868 1.006,2
16:01 14,7 10,5 12,8 76,0 10,8 262 - 1,4 908 1.006,1
16:00 14,7 10,7 12,9 76,9 10,5 262 - 1,4 930 1.006,1
 
15:59 14,6 10,6 12,8 76,8 9,9 262 - 1,4 337 1.006,2
15:58 14,5 10,2 12,5 75,3 9,6 261 - 1,4 294 1.006,2
15:57 14,5 10,3 12,6 75,9 9,8 259 13,0 1,4 259 1.006,2
15:56 14,6 10,4 12,6 75,8 10,4 259 - 1,4 261 1.006,1
15:55 14,6 10,4 12,6 75,7 11,0 258 - 1,4 310 1.006,1
15:54 14,6 10,6 12,8 77,0 11,0 256 - 1,4 281 1.006,1
15:53 14,6 10,4 12,6 75,7 10,7 254 - 1,4 272 1.006,1
15:52 14,6 10,4 12,6 75,8 10,0 255 - 1,4 266 1.006,1
15:51 14,6 10,6 12,8 76,9 9,6 259 - 1,4 246 1.006,1
15:50 14,5 10,2 12,5 75,2 9,4 263 - 1,4 246 1.006,1
15:49 14,6 10,6 12,8 76,7 9,2 264 - 1,4 246 1.006,1
15:48 14,7 10,8 12,9 77,5 10,0 266 - 1,4 230 1.006,1
15:47 14,7 10,6 12,8 76,4 10,1 268 - 1,4 216 1.006,1
15:46 14,8 10,6 12,9 76,0 10,3 269 - 1,4 216 1.006,1
15:45 14,9 10,7 12,9 75,9 10,4 268 - 1,4 231 1.006,1
15:44 14,8 10,5 12,8 75,3 10,6 266 - 1,4 680 1.006,0
15:43 14,8 10,6 12,9 76,0 10,5 265 - 1,4 972 1.006,0
15:42 14,8 10,6 12,9 76,0 10,5 264 - 1,4 951 1.006,0
15:41 14,7 10,5 12,8 76,0 10,9 262 - 1,4 924 1.006,0
15:40 14,7 10,7 12,9 76,8 11,4 260 - 1,4 762 1.006,0
15:39 14,6 10,6 12,8 76,9 10,8 257 - 1,4 429 1.006,0
15:38 14,6 10,4 12,7 76,0 10,4 255 - 1,4 429 1.005,9
15:37 14,7 10,6 12,8 76,4 10,9 255 - 1,4 429 1.005,9
15:36 14,8 11,0 13,1 78,1 11,1 257 - 1,4 872 1.005,9
15:35 14,8 11,2 13,2 79,0 10,9 259 - 1,4 921 1.005,9
15:34 14,8 11,0 13,1 78,2 10,6 262 - 1,4 921 1.005,9
15:33 14,7 10,9 13,0 77,9 10,4 265 - 1,4 921 1.005,8
15:32 14,6 10,6 12,8 77,0 10,3 267 - 1,4 515 1.005,8
15:31 14,7 10,6 12,8 76,6 10,7 266 - 1,4 244 1.005,8
15:30 14,7 10,6 12,8 76,6 11,3 265 - 1,4 265 1.005,8
15:29 14,9 10,9 13,1 77,0 11,7 264 - 1,4 1.023 1.005,8
15:28 14,9 10,7 13,0 76,2 11,7 264 - 1,4 1.023 1.005,8
15:27 14,9 10,7 12,9 75,9 11,8 264 - 1,4 1.016 1.005,7
15:26 15,0 10,7 13,0 75,3 11,9 266 - 1,4 1.003 1.005,8
15:25 15,2 11,0 13,3 76,0 11,6 267 - 1,4 1.000 1.005,8
15:24 15,2 10,9 13,2 75,4 10,8 267 - 1,4 1.000 1.005,8
15:23 15,2 10,8 13,1 75,0 10,0 265 - 1,4 1.001 1.005,8
15:22 15,1 10,7 13,0 74,9 9,7 261 - 1,4 991 1.005,9
15:21 15,0 10,2 12,7 73,0 10,2 257 - 1,4 965 1.005,9
15:20 15,0 10,3 12,7 73,3 10,6 254 - 1,4 965 1.005,9
15:19 15,1 10,5 12,9 74,0 10,7 254 - 1,4 965 1.005,9
15:18 15,1 10,5 12,9 74,0 10,6 254 - 1,4 966 1.005,8
15:17 15,1 10,3 12,8 73,1 10,5 254 - 1,4 966 1.005,8
15:16 15,1 10,3 12,8 73,1 9,9 253 - 1,4 961 1.005,9
15:15 15,2 10,6 13,0 73,8 9,1 251 - 1,4 1.000 1.005,8
15:14 15,2 10,5 13,0 73,7 9,1 247 - 1,4 1.000 1.005,8
15:13 15,2 10,9 13,2 75,5 8,9 242 - 1,4 1.000 1.005,9
15:12 15,1 10,8 13,1 75,4 9,1 240 - 1,4 1.000 1.005,9
15:11 14,9 10,8 13,0 76,6 9,1 243 12,1 1,4 836 1.005,9
15:10 14,8 10,4 12,8 75,1 8,7 248 - 1,4 345 1.005,8
15:09 14,7 10,2 12,5 74,2 8,5 254 - 1,4 345 1.005,7
15:08 14,7 10,3 12,6 75,0 9,7 259 - 1,4 308 1.005,8
15:07 14,7 10,4 12,7 75,6 9,9 262 - 1,4 242 1.005,7
15:06 14,7 10,4 12,7 75,3 9,8 261 - 1,4 241 1.005,7
15:05 14,6 10,3 12,6 75,2 9,5 258 - 1,4 241 1.005,8
15:04 14,6 10,4 12,6 75,8 9,3 256 - 1,4 241 1.005,7
15:03 14,5 10,1 12,4 74,8 10,0 255 - 1,4 241 1.005,6
15:02 14,5 10,0 12,4 74,5 10,6 255 - 1,4 241 1.005,6
15:01 14,5 10,3 12,6 76,1 10,7 255 - 1,4 205 1.005,6
15:00 14,5 10,2 12,5 75,6 10,2 255 - 1,4 194 1.005,6
 
14:59 14,5 10,1 12,5 75,0 9,9 254 - 1,4 181 1.005,6
14:58 14,4 10,0 12,4 75,0 10,0 252 - 1,4 140 1.005,6
14:57 14,4 10,0 12,4 75,0 10,0 251 - 1,4 140 1.005,6
14:56 14,4 10,0 12,4 75,0 9,7 249 - 1,4 188 1.005,6
14:55 14,4 10,0 12,4 75,0 9,1 248 - 1,4 202 1.005,6
14:54 14,4 9,9 12,3 74,3 8,8 249 - 1,4 207 1.005,6
14:53 14,4 10,0 12,3 74,9 8,9 250 - 1,4 207 1.005,6
14:52 14,5 10,1 12,5 75,0 9,5 251 - 1,4 238 1.005,5
14:51 14,5 10,1 12,5 75,0 10,0 250 - 1,4 252 1.005,4
14:50 14,6 10,3 12,6 75,5 9,9 248 - 1,4 240 1.005,5
14:49 14,5 10,3 12,6 76,0 9,7 248 - 1,4 236 1.005,5
14:48 14,5 10,2 12,5 75,3 9,7 247 - 1,4 231 1.005,5
14:47 14,5 10,1 12,5 75,1 9,7 246 - 1,4 206 1.005,5
14:46 14,5 10,3 12,6 76,1 9,6 245 - 1,4 214 1.005,5
14:45 14,6 10,5 12,7 76,3 9,6 245 - 1,4 232 1.005,4
14:44 14,6 10,2 12,5 75,0 9,2 244 - 1,4 232 1.005,4
14:43 14,6 10,3 12,6 75,6 9,1 242 - 1,4 261 1.005,4
14:42 14,5 10,2 12,5 75,3 9,1 238 - 1,4 293 1.005,4
14:41 14,5 10,5 12,7 76,8 9,2 236 12,5 1,4 309 1.005,4
14:40 14,5 10,5 12,7 76,8 9,2 235 - 1,4 309 1.005,4
14:39 14,5 10,3 12,6 76,0 8,6 237 - 1,4 274 1.005,4
14:38 14,5 10,4 12,6 76,5 8,8 240 - 1,4 205 1.005,4
14:37 14,6 10,5 12,7 76,4 9,4 246 - 1,4 189 1.005,3
14:36 14,6 10,4 12,7 76,0 9,5 250 - 1,4 208 1.005,3
14:35 14,7 10,5 12,8 75,9 10,0 251 - 1,4 235 1.005,1
14:34 14,7 10,4 12,7 75,2 10,3 251 - 1,4 251 1.005,1
14:33 14,9 10,6 12,9 75,7 10,3 250 - 1,4 238 1.005,1
14:32 15,0 10,9 13,1 76,3 10,1 249 - 1,4 238 1.005,1
14:31 15,0 10,9 13,1 76,4 9,5 247 - 1,4 878 1.005,2
14:30 15,0 10,8 13,1 76,0 9,4 247 - 1,4 914 1.005,2
14:29 14,8 10,3 12,6 74,2 9,9 247 - 1,4 936 1.005,1
14:28 14,8 10,5 12,8 75,2 10,3 247 - 1,4 948 1.005,2
14:27 14,8 10,6 12,8 75,7 10,5 248 - 1,4 937 1.005,2
14:26 14,7 10,3 12,6 75,0 10,5 251 - 1,4 921 1.005,1
14:25 14,8 10,4 12,7 75,0 9,8 253 - 1,4 919 1.005,1
14:24 14,8 10,4 12,7 75,0 9,8 255 - 1,4 934 1.005,1
14:23 14,8 10,4 12,7 75,0 10,6 255 - 1,4 962 1.005,1
14:22 14,8 10,5 12,8 75,3 10,9 253 - 1,4 965 1.005,1
14:21 14,8 10,5 12,8 75,6 10,5 251 - 1,4 927 1.005,1
14:20 14,7 10,3 12,6 75,0 10,8 248 - 1,4 964 1.005,1
14:19 14,7 10,5 12,8 75,9 11,1 245 - 1,4 976 1.005,1
14:18 14,8 10,8 13,0 76,8 10,5 243 - 1,4 971 1.005,1
14:17 14,7 10,7 12,9 77,0 10,2 243 - 1,4 953 1.005,0
14:16 14,7 10,7 12,9 77,0 9,7 245 - 1,4 930 1.005,1
14:15 14,9 11,1 13,2 77,8 8,4 246 - 1,4 740 1.005,1
14:14 14,8 11,2 13,2 79,0 7,7 248 11,2 1,4 660 1.005,1
14:13 14,7 10,8 13,0 77,6 8,5 250 - 1,4 287 1.005,0
14:12 14,7 10,6 12,8 76,2 9,7 252 - 1,4 287 1.005,0
14:11 14,8 10,8 13,0 77,0 10,0 252 - 1,4 294 1.005,0
14:10 14,8 10,9 13,0 77,3 9,7 247 - 1,4 310 1.005,1
14:09 14,7 10,8 13,0 77,6 8,9 243 - 1,4 315 1.005,1
14:08 14,6 10,7 12,9 77,6 8,4 241 - 1,4 315 1.005,0
14:07 14,6 10,7 12,8 77,3 8,9 239 - 1,4 315 1.004,9
14:06 14,5 10,5 12,7 77,0 9,2 238 - 1,4 315 1.004,9
14:05 14,5 10,5 12,7 77,0 9,7 241 - 1,4 315 1.004,9
14:04 14,4 10,4 12,6 77,0 10,2 245 - 1,4 315 1.004,9
14:03 14,5 10,6 12,8 77,5 10,6 248 - 1,4 315 1.004,8
14:02 14,6 10,8 12,9 78,0 10,4 248 - 1,4 1.023 1.004,8
14:01 14,5 10,7 12,8 78,0 9,9 247 - 1,4 1.060 1.004,9
14:00 14,5 10,9 12,9 78,9 9,8 247 - 1,4 1.060 1.004,8
 
13:59 14,5 10,9 12,9 79,0 9,9 247 - 1,4 1.060 1.004,7
13:58 14,4 10,8 12,8 79,0 10,0 248 - 1,4 1.060 1.004,7
13:57 14,4 10,9 12,9 79,5 10,0 248 - 1,4 522 1.004,7
13:56 14,4 11,0 13,0 80,0 10,0 247 - 1,4 388 1.004,7
13:55 14,4 10,9 12,9 79,3 9,1 246 - 1,4 388 1.004,7
13:54 14,5 11,1 13,0 79,9 8,8 246 - 1,4 388 1.004,8
13:53 14,5 11,1 13,1 80,0 8,9 247 - 1,4 388 1.004,9
13:52 14,4 10,9 12,9 79,3 8,4 247 - 1,4 345 1.004,8
13:51 14,3 10,5 12,6 78,0 9,0 251 - 1,4 329 1.004,6
13:50 14,4 10,7 12,8 78,7 9,0 257 - 1,4 329 1.004,6
13:49 14,4 10,7 12,7 78,2 8,8 261 - 1,4 329 1.004,6
13:48 14,4 10,6 12,7 78,0 8,8 261 - 1,4 329 1.004,7
13:47 14,4 10,6 12,7 78,0 9,6 259 - 1,4 282 1.004,6
13:46 14,4 10,6 12,7 78,0 9,6 255 - 1,4 243 1.004,7
13:45 14,3 10,6 12,7 78,5 9,5 252 - 1,4 243 1.004,7
13:44 14,2 10,5 12,6 78,4 9,3 250 - 1,4 243 1.004,7
13:43 14,1 10,3 12,4 78,0 9,7 251 - 1,4 243 1.004,7
13:42 14,1 10,3 12,4 78,0 9,7 254 - 1,4 243 1.004,6
13:41 14,2 10,4 12,5 78,0 9,9 255 - 1,4 227 1.004,6
13:40 14,2 10,4 12,5 78,0 9,9 256 - 1,4 800 1.004,6
13:39 14,2 10,4 12,5 78,0 9,5 255 - 1,4 995 1.004,6
13:38 14,2 10,6 12,6 78,7 10,0 251 - 1,4 995 1.004,5
13:37 14,2 10,6 12,6 79,0 10,3 245 - 1,4 994 1.004,6
13:36 14,2 10,6 12,6 79,0 10,1 240 - 1,4 922 1.004,6
13:35 14,1 10,6 12,6 79,3 9,9 241 - 1,4 837 1.004,5
13:34 14,1 10,8 12,7 80,4 9,7 246 - 1,4 662 1.004,5
13:33 14,1 10,9 12,8 81,0 9,2 252 - 1,4 603 1.004,5
13:32 14,1 10,8 12,7 80,3 9,7 259 - 1,4 603 1.004,5
13:31 14,1 10,9 12,8 80,9 10,1 265 - 1,4 603 1.004,5
13:30 14,1 10,9 12,8 81,0 9,9 268 - 1,4 599 1.004,4
13:29 14,0 10,8 12,7 81,0 10,0 269 - 1,4 861 1.004,4
13:28 14,0 10,8 12,7 81,0 9,9 268 - 1,4 1.005 1.004,5
13:27 13,9 10,8 12,6 81,6 9,5 266 - 1,4 850 1.004,4
13:26 13,9 10,9 12,7 82,0 9,8 261 - 1,4 878 1.004,3
13:25 13,7 10,5 12,4 81,2 10,5 256 - 1,4 1.013 1.004,3
13:24 13,6 10,5 12,3 81,4 9,6 251 - 1,4 639 1.004,2
13:23 13,7 10,9 12,6 83,3 9,1 247 12,5 1,4 264 1.004,3
13:22 13,7 11,0 12,7 83,6 9,2 244 - 1,4 268 1.004,4
13:21 13,6 10,8 12,5 83,0 9,4 244 - 1,4 279 1.004,4
13:20 13,5 10,7 12,4 83,0 9,7 246 - 1,4 289 1.004,3
13:19 13,5 10,8 12,5 84,0 10,2 250 - 1,4 297 1.004,3
13:18 13,6 11,1 12,7 85,0 9,9 252 13,0 1,4 309 1.004,4
13:17 13,5 11,0 12,6 85,0 9,2 252 - 1,4 343 1.004,4
13:16 13,4 10,9 12,5 85,0 9,1 249 - 1,4 406 1.004,4
13:15 13,3 11,0 12,5 85,8 9,2 246 - 1,4 430 1.004,4
13:14 13,3 11,1 12,6 86,8 9,0 245 - 1,4 323 1.004,4
13:13 13,2 11,1 12,5 87,0 8,6 245 - 1,4 323 1.004,4
13:12 13,1 11,0 12,4 87,0 8,2 248 - 1,4 323 1.004,4
13:11 13,1 11,0 12,4 87,0 8,5 253 - 1,4 323 1.004,4
13:10 13,1 11,0 12,4 87,0 8,8 258 - 1,4 287 1.004,4
13:09 13,1 11,0 12,4 87,0 9,3 262 - 1,4 238 1.004,3
13:08 13,1 11,0 12,4 87,0 10,1 266 - 1,4 214 1.004,2
13:07 13,1 10,8 12,3 86,2 10,3 270 - 1,4 203 1.004,2
13:06 13,1 11,0 12,4 87,0 10,4 273 - 1,4 195 1.004,2
13:05 13,1 10,9 12,4 86,5 10,5 274 - 1,4 214 1.004,2
13:04 13,1 10,9 12,4 86,5 10,7 274 - 1,4 214 1.004,2
13:03 13,1 10,8 12,3 86,0 10,6 274 - 1,4 238 1.004,2
13:02 13,1 10,8 12,3 86,0 10,9 274 - 1,4 238 1.004,2
13:01 13,1 11,0 12,4 87,0 11,0 272 - 1,4 232 1.004,2
13:00 13,0 10,9 12,3 86,8 10,5 270 - 1,4 224 1.004,2
 
12:59 12,9 10,6 12,1 86,0 10,6 267 - 1,4 228 1.004,2
12:58 12,9 10,6 12,1 86,0 11,5 263 - 1,4 243 1.004,1
12:57 12,9 10,7 12,2 86,7 11,7 260 - 1,4 249 1.004,1
12:56 12,9 10,6 12,1 86,2 10,6 258 13,9 1,4 249 1.004,1
12:55 12,8 10,5 12,0 86,0 9,9 256 - 1,4 255 1.004,2
12:54 12,7 10,4 11,9 86,0 10,1 253 - 1,4 263 1.004,2
12:53 12,6 10,3 11,8 86,0 11,2 251 - 1,4 258 1.004,1
12:51 12,5 10,2 11,7 86,0 10,5 252 - 1,4 182 1.004,2
12:50 12,4 10,1 11,6 86,0 10,2 253 - 1,4 161 1.004,1
12:49 12,4 10,1 11,6 86,0 10,3 253 - 1,4 148 1.004,2
12:48 12,4 10,1 11,6 86,0 10,8 254 - 1,4 124 1.004,1
12:47 12,5 10,2 11,7 86,0 10,5 257 - 1,4 116 1.004,2
12:46 12,4 10,0 11,5 85,4 10,6 260 - 1,4 102 1.004,2
12:45 12,4 9,9 11,5 85,0 11,0 261 - 1,4 88 1.004,2
12:44 12,4 9,9 11,5 85,0 11,5 262 - 1,4 79 1.004,1
12:43 12,4 10,0 11,5 85,2 12,0 265 - 1,4 75 1.004,0
12:42 12,5 10,2 11,7 86,0 12,2 269 - 1,4 76 1.004,0
12:41 12,6 10,3 11,8 86,0 11,8 271 - 1,4 80 1.004,0
12:40 12,6 10,2 11,7 85,4 12,1 271 - 1,4 76 1.003,9
12:39 12,7 10,4 11,9 85,8 12,3 270 - 1,4 75 1.003,9
12:38 12,7 10,4 11,9 85,9 12,2 269 - 1,4 80 1.003,9
12:37 12,7 10,2 11,8 85,0 12,6 266 - 1,4 91 1.003,8
12:36 12,7 10,2 11,8 84,6 12,7 264 - 1,4 105 1.003,8
12:35 12,7 10,2 11,8 84,5 13,0 263 - 1,4 106 1.003,8
12:34 12,8 10,4 12,0 85,6 12,9 265 - 1,4 105 1.003,8
12:33 12,9 10,6 12,1 86,0 12,9 267 - 1,4 110 1.003,8
12:32 12,8 10,5 12,0 85,9 12,5 270 - 1,4 110 1.003,7
12:31 12,8 10,4 11,9 85,2 12,6 272 - 1,4 137 1.003,8
12:30 12,7 10,3 11,8 85,2 12,5 273 - 1,4 160 1.003,8
12:29 12,6 10,1 11,7 85,0 12,6 274 - 1,4 182 1.003,7
12:28 12,6 10,2 11,7 85,4 12,8 273 - 1,4 162 1.003,7
12:27 12,6 10,1 11,7 85,0 13,0 271 - 1,4 125 1.003,7
12:26 12,6 10,1 11,7 85,0 12,9 268 - 1,4 106 1.003,7
12:25 12,6 10,1 11,7 85,0 12,4 265 - 1,4 98 1.003,7
12:24 12,6 10,2 11,7 85,4 11,9 263 - 1,4 99 1.003,7
12:23 12,7 10,4 11,9 86,0 11,8 262 - 1,4 114 1.003,7
12:22 12,7 10,4 11,9 86,0 12,2 263 - 1,4 134 1.003,7
12:21 12,7 10,4 11,9 86,0 12,5 266 - 1,4 157 1.003,6
12:20 12,7 10,3 11,8 85,3 12,8 269 - 1,4 168 1.003,4
12:19 12,8 10,7 12,1 87,0 12,9 271 - 1,4 164 1.003,4
12:18 12,9 10,8 12,2 87,0 12,7 271 - 1,4 134 1.003,4
12:17 12,8 10,7 12,1 87,0 12,3 270 - 1,4 103 1.003,4
12:16 12,8 10,7 12,1 87,0 12,5 269 - 1,4 89 1.003,3
12:15 12,7 10,6 12,0 87,0 12,9 269 - 1,4 91 1.003,3
12:14 12,7 10,4 11,9 86,1 13,5 270 - 1,4 93 1.003,3
12:13 12,7 10,4 11,9 86,0 14,3 271 17,4 1,4 89 1.003,1
12:12 12,8 10,5 12,0 86,0 15,0 271 - 1,4 94 1.003,0
12:11 13,0 10,9 12,3 86,8 15,3 271 - 1,4 112 1.003,0
12:10 13,3 11,3 12,7 87,7 14,1 272 - 1,4 117 1.003,0
12:09 13,2 11,1 12,6 87,2 13,0 274 - 1,4 130 1.003,0
12:08 13,2 11,1 12,6 87,2 12,6 274 - 1,4 135 1.003,0
12:07 13,2 11,3 12,6 88,0 13,1 274 - 1,4 130 1.003,0
12:06 13,1 11,2 12,5 88,0 13,6 275 - 1,4 110 1.002,9
12:05 13,1 11,2 12,5 88,0 14,0 275 - 1,4 98 1.002,9
12:04 13,1 11,0 12,5 87,3 14,0 272 - 1,4 103 1.002,9
12:03 13,1 11,1 12,5 87,7 13,7 268 - 1,4 106 1.002,9
12:02 13,1 11,0 12,5 87,2 13,4 262 - 1,4 98 1.002,9
12:01 13,2 11,3 12,6 88,0 12,8 254 - 1,4 88 1.003,0
12:00 13,1 11,2 12,5 88,0 11,0 247 - 1,4 84 1.003,0
 
11:59 13,0 11,1 12,4 88,0 10,4 242 - 1,4 81 1.003,1
11:58 12,9 11,0 12,3 88,0 10,5 241 - 1,4 79 1.003,1
11:57 12,9 11,0 12,3 88,0 11,2 243 - 1,4 78 1.003,0
11:56 12,9 11,0 12,4 88,2 11,1 248 - 1,4 77 1.002,9
11:55 13,0 11,2 12,5 88,7 11,1 252 - 1,4 67 1.003,0
11:54 12,9 11,0 12,3 88,0 10,8 253 - 1,4 56 1.003,1
11:53 12,8 10,9 12,2 88,0 10,9 252 - 1,4 47 1.003,0
11:52 12,8 11,0 12,3 88,8 11,1 248 14,8 1,4 42 1.003,0
11:51 12,8 10,9 12,2 88,1 10,8 244 - 1,4 40 1.002,9
11:50 12,8 10,9 12,3 88,2 10,6 241 - 1,4 39 1.003,0
11:49 12,8 11,0 12,3 89,0 10,7 238 - 1,4 41 1.002,9
11:48 12,7 10,9 12,2 89,0 11,2 236 - 1,4 45 1.002,8
11:47 12,7 10,9 12,2 89,0 11,7 236 - 1,4 45 1.002,8
11:46 12,7 11,1 12,3 89,8 12,2 237 - 1,4 41 1.002,8
11:45 12,7 11,1 12,3 90,0 12,3 238 - 1,4 44 1.002,8
11:44 12,7 11,1 12,3 90,0 11,8 238 15,2 1,4 54 1.002,6
11:43 12,7 11,2 12,4 90,4 11,5 238 14,8 1,4 54 1.002,8
11:42 12,7 11,3 12,5 91,0 10,3 240 13,4 1,4 80 1.002,9
11:41 12,7 11,3 12,5 91,0 8,2 243 - 1,4 150 1.002,9
11:40 12,7 11,3 12,5 91,0 7,3 244 - 1,4 184 1.002,9
11:39 12,5 11,1 12,2 91,0 7,5 241 10,7 1,4 185 1.002,8
11:38 12,5 11,1 12,2 91,0 7,9 240 - 1,4 164 1.002,9
11:37 12,5 11,1 12,2 91,0 7,2 239 - 1,4 201 1.002,8
11:36 12,4 11,0 12,1 91,0 6,9 237 - 1,4 246 1.002,8
11:35 12,3 10,9 12,0 91,0 6,9 232 - 1,4 290 1.002,8
11:34 12,3 10,9 12,0 91,0 7,3 226 - 1,4 285 1.002,8
11:33 12,2 10,8 11,9 91,0 7,4 223 - 1,4 232 1.002,8
11:32 12,3 10,9 12,0 91,0 7,2 223 - 1,4 186 1.002,8
11:31 12,3 10,9 12,0 91,0 6,7 225 10,7 1,4 168 1.002,8
11:30 12,3 10,9 12,0 91,0 5,2 227 10,7 1,4 155 1.002,8
11:29 12,2 10,8 11,9 91,0 4,9 231 - 1,4 147 1.002,8
11:28 12,2 10,8 11,9 91,0 5,9 234 - 1,4 153 1.002,7
11:27 12,2 10,8 11,9 91,0 6,8 237 - 1,4 151 1.002,7
11:26 12,3 10,9 12,0 91,0 6,6 237 10,3 1,4 139 1.002,8
11:25 12,3 10,9 12,0 91,0 5,9 235 - 1,4 134 1.002,7
11:24 12,3 10,9 12,0 91,0 6,0 231 - 1,4 158 1.002,7
11:23 12,3 10,9 12,0 91,0 6,2 228 - 1,4 161 1.002,7
11:22 12,3 10,9 12,0 91,0 5,6 226 - 1,4 161 1.002,7
11:21 12,3 10,9 12,0 91,0 5,1 223 - 1,4 170 1.002,7
11:20 12,2 10,8 11,9 91,0 5,3 221 - 1,2 159 1.002,7
11:19 12,2 10,8 11,9 91,0 5,9 222 - 1,2 132 1.002,7
11:18 12,2 10,8 11,9 91,0 6,3 227 10,3 1,2 134 1.002,6
11:17 12,2 10,8 11,9 91,0 6,0 231 9,4 1,2 134 1.002,6
11:16 12,1 10,7 11,8 91,0 6,2 236 - 1,2 134 1.002,6
11:15 12,1 10,5 11,7 90,0 6,4 240 - 1,2 137 1.002,6
11:14 12,0 10,4 11,6 90,0 7,0 241 - 1,2 136 1.002,5
11:13 11,9 10,3 11,5 90,0 6,8 240 - 1,2 127 1.002,6
11:12 12,0 10,4 11,6 90,0 6,7 239 - 1,2 113 1.002,6
11:11 12,0 10,4 11,6 90,0 7,0 240 - 1,2 102 1.002,6
11:10 12,0 10,4 11,6 90,0 7,8 242 - 1,2 99 1.002,5
11:09 12,0 10,2 11,5 89,0 7,8 242 13,9 1,0 105 1.002,5
11:08 12,0 10,2 11,5 89,0 7,2 240 10,7 1,0 112 1.002,6
11:07 12,0 10,2 11,5 88,5 6,1 237 - 0,8 125 1.002,5
11:06 12,0 10,1 11,4 88,0 5,6 233 - 0,8 127 1.002,5
11:05 12,0 10,1 11,4 88,0 6,0 227 - 0,8 123 1.002,5
11:01 12,2 10,1 11,5 87,0 6,2 222 - 0,6 86 1.002,4
11:00 12,2 10,0 11,4 86,4 7,9 221 - 0,6 82 1.002,3
 
10:59 12,2 10,1 11,5 86,8 9,9 222 - 0,6 76 1.002,2
10:58 12,4 10,3 11,7 87,2 10,5 222 13,9 0,6 72 1.002,2
10:57 12,4 10,4 11,8 87,8 9,9 222 13,0 0,6 68 1.002,1
10:56 12,3 10,1 11,6 86,6 9,1 225 13,0 0,6 71 1.002,2
10:55 12,4 10,1 11,6 86,0 8,0 231 - 0,6 73 1.002,3
10:54 12,5 10,3 11,8 86,7 7,0 238 - 0,6 86 1.002,3
10:53 12,5 10,2 11,7 86,1 7,5 244 - 0,4 89 1.002,3
10:52 12,5 10,2 11,7 85,8 8,4 250 - 0,4 103 1.002,3
10:51 12,6 10,1 11,7 85,0 9,3 250 - 0,4 113 1.002,2
10:50 12,8 10,3 11,9 85,0 10,2 246 - 0,4 122 1.002,1
10:49 13,1 10,6 12,2 85,0 10,4 243 13,9 0,4 125 1.002,0
10:48 13,4 11,1 12,6 85,7 10,1 239 13,9 0,4 130 1.002,1
10:47 13,5 11,2 12,7 86,0 9,2 231 - 0,4 161 1.002,2
10:46 13,6 11,3 12,8 86,0 8,4 223 11,6 0,4 256 1.002,2
10:45 13,6 11,3 12,8 86,0 7,0 218 - 0,4 302 1.002,1
10:44 13,6 11,3 12,8 86,0 6,7 214 9,8 0,4 301 1.002,2
10:43 13,6 11,3 12,8 86,0 6,7 211 - 0,4 280 1.002,2
10:42 13,6 11,3 12,9 86,1 7,4 210 - 0,4 292 1.002,1
10:41 13,6 11,5 13,0 87,0 7,2 212 11,6 0,4 310 1.002,1
10:40 13,6 11,5 13,0 87,0 6,0 216 - 0,4 315 1.002,1
10:39 13,6 11,5 13,0 87,0 5,0 219 - 0,4 355 1.002,1
10:38 13,6 11,5 13,0 87,0 4,9 221 - 0,4 355 1.002,1
10:37 13,5 11,4 12,8 87,0 5,2 222 - 0,4 350 1.002,1
10:36 13,5 11,4 12,8 87,0 5,3 222 - 0,4 320 1.002,1
10:34 13,4 11,3 12,7 87,0 5,3 223 - 0,4 276 1.002,0
10:33 13,4 11,3 12,7 87,0 5,5 224 - 0,4 276 1.002,0
10:28 13,3 11,4 12,8 88,0 6,0 222 - 0,4 200 1.002,1
10:27 13,3 11,4 12,8 88,0 5,8 220 - 0,4 200 1.002,1
10:26 13,3 11,4 12,8 88,0 5,1 222 - 0,4 200 1.002,1
10:25 13,2 11,3 12,6 88,0 4,7 224 - 0,4 198 1.002,1
10:24 13,2 11,3 12,6 88,0 5,1 225 - 0,4 184 1.002,1
10:23 13,2 11,3 12,6 88,0 6,1 226 - 0,4 192 1.002,1
10:22 13,2 11,3 12,6 88,0 6,7 229 - 0,4 238 1.002,1
10:21 13,2 11,3 12,7 88,4 7,0 231 - 0,4 317 1.002,1
10:20 13,2 11,4 12,8 89,0 6,5 230 - 0,4 308 1.002,1
10:19 13,1 11,3 12,7 89,0 6,0 228 - 0,4 316 1.002,1
10:18 13,1 11,3 12,7 89,0 5,8 228 - 0,4 359 1.002,1
10:17 13,0 11,2 12,6 89,0 6,2 229 - 0,4 356 1.002,1
10:16 13,0 11,2 12,6 89,0 6,8 228 - 0,4 344 1.002,0
10:15 12,9 11,1 12,4 89,0 7,4 225 - 0,4 336 1.002,0
10:14 12,9 11,1 12,4 89,0 7,6 223 - 0,4 311 1.002,0
10:13 12,9 11,1 12,4 89,0 7,7 222 11,6 0,4 280 1.002,0
10:12 12,9 11,1 12,4 89,0 7,4 220 12,1 0,4 261 1.002,0
10:11 12,9 11,1 12,4 89,0 7,2 219 - 0,4 252 1.002,0
10:10 13,0 11,2 12,6 89,0 7,1 221 10,7 0,4 253 1.001,9
10:09 13,0 11,2 12,6 89,0 6,7 226 - 0,4 264 1.001,9
10:08 13,0 11,2 12,6 89,0 5,7 229 - 0,4 316 1.001,9
10:07 12,9 11,1 12,4 89,0 6,2 230 - 0,4 287 1.001,9
10:06 12,9 11,1 12,4 89,0 7,0 232 - 0,4 218 1.001,9
10:05 12,9 11,1 12,4 89,0 7,0 233 - 0,4 218 1.001,9
10:04 13,0 11,2 12,6 89,0 5,6 232 - 0,4 193 1.001,9
10:03 13,0 11,2 12,6 89,0 4,3 229 - 0,4 154 1.001,9
10:02 13,0 11,2 12,6 89,0 4,0 230 - 0,4 116 1.001,9
10:01 13,0 11,2 12,6 89,0 3,8 232 - 0,4 76 1.001,9
10:00 13,0 11,2 12,6 89,0 3,4 234 - 0,4 50 1.001,9
 
09:59 13,0 11,1 12,5 88,1 3,7 236 - 0,4 36 1.001,8
09:58 13,1 11,2 12,5 88,0 4,7 237 - 0,4 29 1.001,8
09:57 13,1 11,2 12,5 88,0 5,5 236 - 0,4 26 1.001,8
09:56 13,1 11,1 12,5 87,4 6,3 234 - 0,2 27 1.001,8
09:55 13,2 11,1 12,5 87,0 6,4 231 - 0,2 32 1.001,8
09:54 13,3 11,2 12,6 87,0 6,0 227 - 0,2 35 1.001,8
09:53 13,4 11,3 12,7 87,0 5,8 223 - 0,2 40 1.001,7
09:52 13,4 11,3 12,7 87,0 6,0 219 - 0,2 37 1.001,7
09:51 13,5 11,4 12,8 87,0 6,2 216 - 0,2 31 1.001,7
09:50 13,5 11,4 12,8 87,0 6,2 215 - 0,0 28 1.001,7
09:49 13,6 11,4 12,9 86,3 6,1 214 - 0,0 29 1.001,6
09:48 13,6 11,5 12,9 86,9 5,5 213 - 0,0 31 1.001,6
09:47 13,6 11,3 12,8 86,0 4,9 213 - 0,0 36 1.001,7
09:46 13,6 11,3 12,8 86,0 4,4 214 - 0,0 45 1.001,6
09:45 13,7 11,4 12,9 86,0 4,3 212 - 0,0 53 1.001,6
09:44 13,7 11,4 12,9 86,0 4,7 210 - 0,0 62 1.001,6
09:43 13,7 11,4 13,0 86,1 4,8 210 - 0,0 74 1.001,6
09:42 13,8 11,7 13,2 87,0 4,4 213 - 0,0 79 1.001,6
09:41 13,8 11,7 13,2 87,0 3,6 216 - 0,0 75 1.001,6
09:40 13,8 11,7 13,2 87,0 3,6 216 - 0,0 76 1.001,6
09:39 13,8 11,7 13,2 87,0 3,9 217 - 0,0 100 1.001,6
09:38 13,7 11,6 13,1 87,0 4,0 218 - 0,0 122 1.001,6
09:37 13,7 11,6 13,1 87,0 3,8 216 - 0,0 218 1.001,6
09:36 13,7 11,6 13,1 87,0 3,9 215 - 0,0 343 1.001,6
09:35 13,7 11,6 13,1 87,0 4,4 217 - 0,0 343 1.001,6
09:34 13,7 11,6 13,1 87,0 4,5 219 - 0,0 343 1.001,6
09:33 13,6 11,5 13,0 87,0 4,7 221 - 0,0 343 1.001,5
09:32 13,6 11,5 13,0 87,0 5,0 223 - 0,0 271 1.001,5
09:31 13,6 11,5 13,0 87,0 5,0 222 - 0,0 242 1.001,5
09:30 13,6 11,5 13,0 87,0 4,9 217 - 0,0 257 1.001,5
09:29 13,6 11,5 13,0 87,0 5,1 212 - 0,0 243 1.001,5
09:28 13,6 11,5 13,0 87,0 5,8 208 - 0,0 235 1.001,5
09:27 13,7 11,7 13,1 87,6 5,6 206 - 0,0 217 1.001,4
09:26 13,7 11,7 13,2 88,0 4,6 204 - 0,0 191 1.001,4
09:25 13,6 11,6 13,1 88,0 4,0 205 - 0,0 243 1.001,5
09:24 13,6 11,6 13,1 88,0 3,8 207 - 0,0 320 1.001,5
09:23 13,6 11,6 13,0 87,7 3,4 207 - 0,0 332 1.001,5
09:22 13,5 11,4 12,8 87,0 3,7 206 - 0,0 228 1.001,5
09:21 13,5 11,4 12,8 87,0 3,8 207 - 0,0 195 1.001,4
09:20 13,4 11,3 12,7 87,0 3,7 211 - 0,0 185 1.001,5
09:19 13,4 11,3 12,7 87,0 3,6 214 - 0,0 156 1.001,5
09:18 13,4 11,3 12,7 87,0 4,6 216 - 0,0 179 1.001,4
09:17 13,4 11,3 12,7 87,0 5,8 216 - 0,0 179 1.001,4
09:16 13,5 11,5 12,9 87,6 5,7 213 - 0,0 157 1.001,4
09:15 13,5 11,6 13,0 88,0 4,7 208 - 0,0 121 1.001,4
09:14 13,5 11,6 13,0 88,0 4,2 203 - 0,0 111 1.001,3
09:13 13,5 11,6 13,0 88,0 4,2 199 - 0,0 108 1.001,4
09:12 13,5 11,6 13,0 88,0 4,4 197 - 0,0 125 1.001,4
09:11 13,5 11,6 13,0 88,0 4,9 200 - 0,0 176 1.001,3
09:10 13,5 11,6 13,0 88,0 5,1 203 - 0,0 149 1.001,3
09:09 13,5 11,6 13,0 88,0 4,8 205 - 0,0 139 1.001,3
09:08 13,5 11,6 13,0 88,0 4,8 203 9,4 0,0 152 1.001,3
09:07 13,5 11,6 13,0 88,0 4,6 201 - 0,0 161 1.001,3
09:06 13,6 11,6 13,1 88,0 4,8 198 - 0,0 154 1.001,3
09:05 13,6 11,6 13,1 88,0 5,3 198 - 0,0 184 1.001,3
09:04 13,6 11,7 13,1 88,5 5,3 199 - 0,0 218 1.001,2
09:03 13,5 11,7 13,1 89,0 4,3 203 - 0,0 206 1.001,2
09:02 13,5 11,7 13,1 89,0 3,7 208 - 0,0 237 1.001,2
09:01 13,5 11,7 13,1 89,0 4,2 213 - 0,0 245 1.001,2
09:00 13,4 11,6 13,0 89,0 4,6 218 - 0,0 264 1.001,2
 
08:59 13,4 11,6 13,0 89,0 5,4 222 - 0,0 264 1.001,2
08:58 13,4 11,6 13,0 89,0 5,8 223 - 0,0 249 1.001,1
08:57 13,4 11,6 13,0 89,0 5,1 223 - 0,0 185 1.001,1
08:56 13,4 11,6 13,0 89,0 4,5 225 - 0,0 193 1.001,1
08:55 13,4 11,6 13,0 89,0 5,2 226 - 0,0 227 1.001,1
08:54 13,4 11,6 13,0 89,0 5,8 225 9,8 0,0 287 1.001,1
08:53 13,4 11,6 13,0 89,0 5,8 218 - 0,0 292 1.001,1
08:52 13,4 11,6 13,0 89,0 5,7 212 - 0,0 294 1.001,0
08:51 13,4 11,6 13,0 89,0 5,6 208 - 0,0 275 1.001,1
08:50 13,4 11,6 13,0 89,0 6,0 206 - 0,0 274 1.001,0
08:49 13,4 11,6 13,0 89,0 5,8 204 9,4 0,0 263 1.001,0
08:48 13,4 11,6 13,0 89,0 5,6 205 - 0,0 212 1.001,0
08:47 13,4 11,6 13,0 89,0 5,3 209 - 0,0 140 1.001,0
08:46 13,4 11,6 13,0 89,0 5,3 214 - 0,0 125 1.000,9
08:45 13,4 11,8 13,1 89,9 5,2 218 - 0,0 113 1.000,9
08:44 13,4 11,8 13,1 90,0 5,0 220 - 0,0 104 1.000,9
08:43 13,4 11,8 13,1 90,0 5,4 220 - 0,0 95 1.000,9
08:42 13,5 11,9 13,2 90,0 5,7 221 - 0,0 83 1.000,9
08:41 13,5 11,9 13,2 90,0 5,5 221 - 0,0 74 1.000,9
08:40 13,5 11,9 13,2 90,0 5,1 220 - 0,0 78 1.000,9
08:39 13,5 11,9 13,2 90,0 5,2 219 - 0,0 108 1.000,9
08:38 13,5 11,9 13,2 90,0 5,2 219 - 0,0 171 1.000,9
08:37 13,5 11,9 13,2 90,0 4,9 220 - 0,0 198 1.000,9
08:36 13,4 11,8 13,1 90,0 5,1 222 - 0,0 184 1.000,8
08:35 13,5 11,9 13,2 90,0 5,5 223 - 0,0 175 1.000,8
08:34 13,5 11,9 13,2 90,0 5,8 224 - 0,0 191 1.000,8
08:33 13,5 11,9 13,2 90,0 5,2 225 - 0,0 198 1.000,8
08:32 13,4 11,8 13,1 90,0 4,3 225 - 0,0 179 1.000,8
08:31 13,4 11,8 13,1 90,0 4,1 222 - 0,0 169 1.000,8
08:30 13,4 11,8 13,1 90,0 4,5 220 - 0,0 162 1.000,8
08:29 13,4 11,8 13,1 90,0 4,5 220 - 0,0 157 1.000,7
08:28 13,4 11,8 13,1 90,0 4,3 221 - 0,0 152 1.000,7
08:27 13,4 11,8 13,1 90,0 4,4 222 - 0,0 138 1.000,7
08:26 13,4 11,8 13,1 90,0 5,0 221 - 0,0 112 1.000,7
08:25 13,4 11,8 13,1 90,0 5,3 220 - 0,0 96 1.000,7
08:24 13,4 11,8 13,1 90,0 4,5 221 - 0,0 101 1.000,7
08:23 13,4 11,8 13,1 90,0 4,1 221 - 0,0 118 1.000,7
08:22 13,4 11,8 13,1 90,0 4,6 220 - 0,0 129 1.000,7
08:21 13,4 11,8 13,1 90,0 5,3 221 - 0,0 143 1.000,7
08:20 13,4 11,8 13,1 90,0 5,9 222 - 0,0 153 1.000,7
08:19 13,4 11,8 13,1 90,2 6,6 222 - 0,0 153 1.000,7
08:18 13,5 12,1 13,3 91,0 6,6 221 - 0,0 147 1.000,7
08:17 13,5 12,1 13,3 91,0 5,2 221 - 0,0 138 1.000,7
08:16 13,5 12,1 13,3 91,0 3,9 222 - 0,0 130 1.000,7
08:15 13,5 12,1 13,3 91,0 3,5 221 - 0,0 127 1.000,7
08:14 13,5 12,1 13,3 91,0 4,2 221 - 0,0 138 1.000,7
08:13 13,5 12,1 13,3 91,0 4,0 221 - 0,0 149 1.000,7
08:12 13,5 12,1 13,3 91,0 3,4 218 - 0,0 135 1.000,6
08:11 13,5 12,1 13,3 91,0 2,4 212 - 0,0 127 1.000,6
08:10 13,5 12,1 13,3 91,0 2,6 208 - 0,0 110 1.000,7
08:09 13,5 12,1 13,3 91,0 3,3 207 - 0,0 108 1.000,7
08:08 13,4 12,0 13,2 91,0 3,6 207 - 0,0 105 1.000,7
08:07 13,4 12,0 13,2 91,0 3,9 208 - 0,0 112 1.000,7
08:06 13,4 12,0 13,2 91,0 4,1 208 - 0,0 118 1.000,7
08:05 13,4 12,0 13,2 91,0 3,8 208 - 0,0 116 1.000,8
08:04 13,4 12,0 13,2 91,0 3,4 210 - 0,0 112 1.000,8
08:03 13,4 12,0 13,2 91,0 3,8 212 - 0,0 113 1.000,8
08:02 13,4 12,0 13,2 91,0 3,8 214 - 0,0 127 1.000,8
08:01 13,4 12,0 13,2 91,0 4,2 217 - 0,0 127 1.000,8
08:00 13,4 12,0 13,2 91,0 4,0 220 - 0,0 128 1.000,8
 
07:59 13,4 12,0 13,2 91,0 3,8 224 - 0,0 128 1.000,8
07:58 13,4 12,0 13,2 91,0 3,6 223 - 0,0 125 1.000,7
07:57 13,4 12,0 13,2 91,0 3,6 221 - 0,0 124 1.000,7
07:56 13,4 12,0 13,2 91,0 3,9 219 - 0,0 122 1.000,7
07:55 13,4 12,0 13,2 91,0 3,9 217 - 0,0 116 1.000,6
07:54 13,4 12,0 13,2 91,0 3,5 216 - 0,0 106 1.000,6
07:53 13,4 12,0 13,2 91,0 3,5 217 - 0,0 98 1.000,6
07:52 13,4 12,0 13,2 91,0 3,9 216 - 0,0 94 1.000,6
07:51 13,4 12,0 13,2 91,0 4,5 216 - 0,0 89 1.000,6
07:50 13,4 12,0 13,2 91,0 4,3 215 - 0,0 95 1.000,6
07:49 13,4 12,0 13,2 91,0 3,6 211 - 0,0 99 1.000,6
07:48 13,4 12,0 13,2 91,0 2,9 204 - 0,0 83 1.000,6
07:47 13,3 11,9 13,1 91,0 2,8 196 - 0,0 77 1.000,6
07:46 13,3 11,9 13,1 91,0 3,1 190 - 0,0 67 1.000,6
07:45 13,3 11,9 13,1 91,0 3,7 187 - 0,0 63 1.000,5
07:44 13,3 11,9 13,1 91,0 3,9 187 - 0,0 58 1.000,5
07:43 13,3 11,9 13,1 91,0 3,7 191 - 0,0 52 1.000,5
07:42 13,3 11,9 13,1 91,0 3,3 195 - 0,0 54 1.000,5
07:41 13,3 11,9 13,1 91,0 3,6 197 - 0,0 54 1.000,4
07:40 13,3 11,9 13,1 91,0 4,2 198 - 0,0 58 1.000,4
07:39 13,4 12,0 13,2 91,1 4,4 200 - 0,0 62 1.000,4
07:38 13,4 12,1 13,3 92,0 4,0 203 - 0,0 67 1.000,3
07:37 13,4 12,1 13,3 91,6 3,4 205 - 0,0 80 1.000,3
07:36 13,3 11,9 13,1 91,0 3,2 209 - 0,0 84 1.000,3
07:35 13,3 11,9 13,1 91,0 3,4 216 - 0,0 86 1.000,2
07:34 13,3 11,9 13,1 91,0 3,7 222 - 0,0 89 1.000,2
07:33 13,3 11,9 13,1 91,0 3,6 222 - 0,0 102 1.000,2
07:32 13,3 11,9 13,1 91,0 3,6 219 - 0,0 126 1.000,2
07:31 13,3 11,9 13,1 91,0 3,6 215 - 0,0 149 1.000,3
07:30 13,3 11,9 13,1 91,0 4,2 212 - 0,0 151 1.000,3
07:29 13,3 11,9 13,1 91,0 4,7 208 - 0,0 123 1.000,3
07:28 13,3 11,9 13,1 91,0 4,1 204 - 0,0 104 1.000,3
07:27 13,3 11,9 13,1 91,0 3,3 202 - 0,0 85 1.000,3
07:26 13,3 11,9 13,1 91,0 3,2 202 - 0,0 72 1.000,3
07:25 13,3 11,9 13,1 91,0 3,5 201 - 0,0 65 1.000,3
07:24 13,3 11,9 13,1 91,0 3,4 200 - 0,0 56 1.000,3
07:23 13,3 11,9 13,1 91,0 3,3 200 - 0,0 47 1.000,2
07:22 13,3 11,9 13,1 91,0 3,3 200 - 0,0 40 1.000,2
07:21 13,2 11,8 13,0 91,0 3,4 200 - 0,0 37 1.000,2
07:20 13,2 11,8 13,0 91,0 3,9 202 - 0,0 33 1.000,1
07:19 13,2 11,8 13,0 91,0 4,4 204 - 0,0 29 1.000,1
07:18 13,2 11,8 13,0 91,0 4,5 207 - 0,0 28 1.000,0
07:17 13,2 11,8 13,0 91,0 4,2 210 - 0,0 24 1.000,0
07:16 13,2 11,8 13,0 91,0 4,1 212 - 0,0 28 999,9
07:15 13,2 11,8 13,0 91,2 4,4 214 - 0,0 32 999,9
07:14 13,2 11,9 13,1 92,0 4,7 215 - 0,0 35 999,9
07:13 13,2 11,9 13,1 92,0 4,7 216 - 0,0 41 1.000,0
07:12 13,2 11,9 13,1 92,0 4,3 218 - 0,0 40 1.000,1
07:11 13,2 11,9 13,1 92,0 4,4 219 - 0,0 41 1.000,1
07:10 13,2 11,9 13,1 92,0 4,8 221 - 0,0 44 1.000,0
07:09 13,2 11,9 13,1 92,0 4,9 223 - 0,0 41 999,9
07:08 13,2 11,9 13,1 92,0 4,3 223 - 0,0 34 999,9
07:07 13,2 11,9 13,1 92,0 4,0 223 - 0,0 27 999,9
07:06 13,2 11,9 13,1 92,0 4,1 224 - 0,0 23 999,9
07:05 13,2 11,9 13,1 92,0 4,1 226 - 0,0 21 1.000,0
07:04 13,2 11,9 13,1 92,0 4,2 229 - 0,0 22 1.000,0
07:03 13,2 11,9 13,1 92,0 4,9 230 - 0,0 23 999,9
07:02 13,2 11,9 13,1 92,0 5,6 231 - 0,0 29 999,9
07:01 13,2 11,9 13,1 92,0 5,6 231 - 0,0 38 999,9
07:00 13,2 11,9 13,1 92,0 5,1 231 - 0,0 36 999,9
 
06:59 13,1 11,8 13,0 92,0 5,2 229 - 0,0 40 999,9
06:58 13,1 11,8 13,0 92,0 5,8 224 - 0,0 42 999,8
06:57 13,1 11,8 13,0 92,0 6,3 219 - 0,0 40 999,8
06:56 13,1 11,8 13,0 92,0 6,1 215 9,4 0,0 41 999,7
06:55 13,1 11,8 13,0 92,0 6,1 213 9,4 0,0 40 999,7
06:54 13,1 11,8 13,0 92,0 5,9 210 - 0,0 35 999,7
06:53 13,1 11,8 13,0 92,0 5,8 209 - 0,0 31 999,6
06:52 13,1 11,8 13,0 92,0 5,3 211 9,4 0,0 27 999,7
06:51 13,1 11,8 13,0 92,0 5,2 216 - 0,0 26 999,7
06:50 13,1 11,8 13,0 92,0 5,6 219 - 0,0 26 999,7
06:49 13,1 11,8 13,0 92,0 6,1 220 - 0,0 30 999,8
06:48 13,1 11,8 13,0 92,0 5,6 220 - 0,0 50 999,8
06:47 13,1 11,8 13,0 92,0 4,6 219 - 0,0 60 999,8
06:46 13,1 11,8 13,0 92,0 4,1 218 - 0,0 68 999,8
06:45 13,1 11,8 13,0 92,0 4,2 217 - 0,0 75 999,8
06:44 13,1 11,8 13,0 92,0 4,8 218 - 0,0 71 999,8
06:43 13,1 11,8 13,0 92,0 4,9 222 - 0,0 69 999,8
06:42 13,1 11,8 13,0 92,0 4,7 225 - 0,0 69 999,7
06:41 13,1 11,8 13,0 92,0 4,6 228 - 0,0 66 999,7
06:40 13,1 11,8 13,0 92,0 4,5 229 - 0,0 63 999,7
06:39 13,1 11,8 13,0 92,0 4,3 228 - 0,0 63 999,7
06:38 13,0 11,7 12,9 92,0 4,0 227 - 0,0 63 999,7
06:37 13,0 11,7 12,9 92,0 4,3 225 - 0,0 62 999,7
06:36 13,0 11,7 12,9 92,0 4,9 224 - 0,0 58 999,7
06:35 13,0 11,7 12,9 92,0 5,3 222 - 0,0 58 999,7
06:34 13,0 11,7 12,9 92,0 5,1 220 - 0,0 58 999,7
06:33 13,0 11,7 12,9 92,0 4,3 217 - 0,0 57 999,7
06:32 13,0 11,7 12,9 92,0 3,9 216 - 0,0 56 999,7
06:31 13,0 11,7 12,9 92,0 3,9 217 - 0,0 54 999,7
06:30 13,0 11,7 12,9 92,0 3,8 217 - 0,0 47 999,7
06:29 12,9 11,6 12,8 92,0 3,9 219 - 0,0 41 999,6
06:28 12,9 11,6 12,8 92,0 3,9 223 - 0,0 37 999,6
06:27 12,9 11,6 12,8 92,0 3,4 223 - 0,0 33 999,6
06:26 12,9 11,6 12,8 92,0 3,6 218 - 0,0 29 999,6
06:25 12,9 11,6 12,8 92,0 4,1 209 - 0,0 26 999,6
06:24 12,9 11,6 12,8 92,0 4,1 202 - 0,0 23 999,6
06:23 12,9 11,6 12,8 92,0 4,7 199 - 0,0 23 999,6
06:22 12,9 11,6 12,8 92,0 4,5 196 - 0,0 23 999,6
06:21 12,9 11,6 12,8 92,0 4,1 193 - 0,0 22 999,6
06:20 12,9 11,6 12,8 92,0 2,9 192 - 0,0 21 999,6
06:19 12,9 11,6 12,8 92,0 2,3 193 - 0,0 19 999,6
06:18 12,9 11,6 12,8 92,0 2,7 193 - 0,0 18 999,6
06:17 13,0 11,7 12,9 92,0 3,4 191 - 0,0 16 999,6
06:16 13,0 11,7 12,9 92,0 3,0 191 - 0,0 16 999,6
06:15 13,0 11,7 12,9 92,0 3,1 194 - 0,0 16 999,6
06:14 13,0 11,7 12,9 92,0 3,4 198 - 0,0 14 999,7
06:13 13,0 11,7 12,9 92,0 3,3 202 - 0,0 14 999,7
06:12 13,0 11,7 12,9 92,0 2,8 206 - 0,0 13 999,7
06:11 13,0 11,7 12,9 92,0 2,5 209 - 0,0 12 999,6
06:10 13,0 11,7 12,9 92,0 2,8 209 - 0,0 11 999,7
06:09 13,1 11,8 13,0 92,0 3,0 205 - 0,0 11 999,7
06:08 13,1 11,8 13,0 92,0 2,8 200 - 0,0 11 999,6
06:07 13,1 11,8 13,0 92,0 2,3 192 - 0,0 11 999,6
06:06 13,1 11,8 13,0 92,0 2,3 182 - 0,0 9 999,6
06:05 13,1 11,8 13,0 92,0 1,9 170 - 0,0 8 999,6
06:04 13,1 11,8 13,0 92,0 1,8 161 - 0,0 7 999,6
06:03 13,1 11,8 13,0 92,0 1,0 156 - 0,0 7 999,6
06:02 13,1 11,8 13,0 92,0 0,5 160 - 0,0 9 999,6
06:01 13,1 11,8 13,0 92,0 0,9 172 - 0,0 9 999,6
06:00 13,1 11,8 13,0 92,0 2,1 188 - 0,0 10 999,6
 
05:59 13,1 11,8 13,0 92,0 1,8 197 - 0,0 12 999,6
05:58 13,1 11,8 13,0 92,0 2,3 204 - 0,0 13 999,6
05:57 13,1 11,8 13,0 92,0 2,4 211 - 0,0 13 999,6
05:56 13,2 11,9 13,1 92,0 2,4 216 - 0,0 11 999,5
05:55 13,2 11,9 13,1 92,0 2,3 216 - 0,0 11 999,5
05:54 13,2 11,9 13,1 92,0 2,2 214 - 0,0 10 999,5
05:53 13,2 11,9 13,1 92,0 2,1 211 - 0,0 9 999,5
05:52 13,2 11,9 13,1 92,0 1,9 206 - 0,0 8 999,5
05:51 13,2 11,9 13,1 92,0 1,9 201 - 0,0 7 999,5
05:50 13,2 11,9 13,1 92,0 2,1 198 - 0,0 7 999,5
05:49 13,2 11,9 13,1 92,0 2,4 195 - 0,0 7 999,5
05:48 13,3 12,0 13,2 92,0 1,9 195 - 0,0 7 999,5
05:47 13,3 12,0 13,2 92,0 1,0 199 - 0,0 6 999,5
05:46 13,3 12,0 13,2 92,0 1,1 207 - 0,0 5 999,5
05:45 13,3 12,0 13,2 92,0 1,9 216 - 0,0 5 999,5
05:44 13,3 12,0 13,2 92,0 1,3 219 - 0,0 5 999,5
05:43 13,3 12,0 13,2 92,0 0,9 217 - 0,0 5 999,5
05:42 13,3 12,0 13,2 92,0 1,1 216 - 0,0 6 999,5
05:41 13,3 12,0 13,2 92,0 2,5 211 - 0,0 7 999,5
05:40 13,3 12,0 13,2 92,0 2,4 206 - 0,0 6 999,5
05:39 13,3 12,0 13,2 92,0 2,5 203 - 0,0 5 999,5
05:38 13,3 12,0 13,2 92,0 2,3 203 - 0,0 4 999,5
05:37 13,3 12,0 13,2 92,0 2,4 203 - 0,0 0 999,5
05:36 13,3 12,0 13,2 92,0 2,5 202 - 0,0 0 999,4
05:35 13,3 12,0 13,2 92,0 2,2 199 - 0,0 0 999,4
05:34 13,3 12,0 13,2 92,0 2,1 197 - 0,0 0 999,4
05:33 13,3 12,0 13,2 92,0 2,4 196 - 0,0 0 999,4
05:32 13,3 12,0 13,2 92,0 3,0 194 - 0,0 0 999,4
05:31 13,3 12,0 13,2 92,0 3,2 194 - 0,0 0 999,4
05:30 13,4 12,1 13,3 92,0 3,1 195 - 0,0 0 999,4
05:29 13,4 12,1 13,3 92,0 2,9 198 - 0,0 0 999,3
05:28 13,4 12,1 13,3 92,0 2,9 201 - 0,0 0 999,3
05:27 13,4 12,1 13,3 92,0 3,1 204 - 0,0 0 999,4
05:26 13,4 12,1 13,3 92,0 3,0 205 - 0,0 0 999,4
05:25 13,5 12,2 13,4 92,0 2,9 206 - 0,0 0 999,3
05:24 13,5 12,2 13,4 92,0 2,7 207 - 0,0 0 999,3
05:23 13,5 12,2 13,4 92,0 2,6 209 - 0,0 0 999,3
05:22 13,6 12,3 13,5 92,0 2,3 210 - 0,0 0 999,3
05:21 13,6 12,3 13,5 92,0 2,2 212 - 0,0 0 999,3
05:20 13,6 12,3 13,5 92,0 2,3 212 - 0,0 0 999,3
05:19 13,6 12,3 13,5 92,0 2,2 210 - 0,0 0 999,3
05:18 13,6 12,3 13,5 92,0 1,3 200 - 0,0 0 999,3
05:17 13,6 12,3 13,5 92,0 1,2 184 - 0,0 0 999,3
05:16 13,6 12,3 13,5 92,0 1,7 172 - 0,0 0 999,2
05:15 13,6 12,3 13,5 92,0 2,2 168 - 0,0 0 999,2
05:14 13,7 12,4 13,6 92,0 2,6 171 - 0,0 0 999,3
05:13 13,7 12,4 13,6 92,0 2,6 178 - 0,0 0 999,3
05:12 13,7 12,4 13,6 92,0 2,6 187 - 0,0 0 999,3
05:11 13,7 12,4 13,6 92,0 2,7 195 - 0,0 0 999,3
05:10 13,7 12,4 13,6 92,0 2,9 201 - 0,0 0 999,3
05:09 13,7 12,4 13,6 92,0 3,2 204 - 0,0 0 999,3
05:08 13,7 12,4 13,6 92,0 3,2 207 - 0,0 0 999,3
05:07 13,7 12,4 13,6 92,0 3,2 208 - 0,0 0 999,3
05:06 13,7 12,4 13,6 92,0 3,4 208 - 0,0 0 999,3
05:05 13,7 12,4 13,6 92,0 3,5 209 - 0,0 0 999,3
05:04 13,7 12,4 13,6 92,0 3,7 211 - 0,0 0 999,3
05:03 13,7 12,4 13,6 92,0 4,0 212 - 0,0 0 999,3
05:02 13,7 12,4 13,6 92,0 4,6 212 - 0,0 0 999,3
05:01 13,7 12,4 13,6 92,0 4,6 211 - 0,0 0 999,4
05:00 13,7 12,4 13,6 92,0 4,3 210 - 0,0 0 999,4
 
04:59 13,7 12,4 13,6 92,0 4,2 208 - 0,0 0 999,4
04:58 13,7 12,4 13,6 92,0 4,1 208 - 0,0 0 999,4
04:57 13,7 12,4 13,6 92,0 4,3 210 - 0,0 0 999,4
04:56 13,7 12,4 13,6 92,0 4,9 212 - 0,0 0 999,3
04:55 13,7 12,4 13,6 92,1 5,3 215 - 0,0 0 999,3
04:54 13,7 12,6 13,7 93,0 5,2 216 - 0,0 0 999,3
04:53 13,7 12,5 13,7 92,7 5,1 219 - 0,0 0 999,3
04:52 13,7 12,4 13,6 92,0 4,7 222 - 0,0 0 999,3
04:51 13,7 12,4 13,6 92,0 4,5 223 - 0,0 0 999,4
04:50 13,8 12,7 13,8 92,8 4,6 223 - 0,0 0 999,4
04:49 13,8 12,7 13,8 93,0 4,8 221 - 0,0 0 999,4
04:48 13,8 12,7 13,8 93,0 4,0 217 - 0,0 0 999,4
04:47 13,8 12,7 13,8 93,0 3,0 211 - 0,0 0 999,4
04:46 13,8 12,7 13,8 93,0 2,6 204 - 0,0 0 999,4
04:45 13,8 12,7 13,8 93,0 3,4 198 - 0,0 0 999,4
04:44 13,8 12,7 13,8 93,0 3,8 193 - 0,0 0 999,5
04:43 13,8 12,7 13,8 93,0 3,5 194 - 0,0 0 999,5
04:42 13,7 12,6 13,7 93,0 3,0 200 - 0,0 0 999,5
04:41 13,7 12,6 13,7 93,0 2,5 206 - 0,0 0 999,5
04:40 13,7 12,6 13,7 93,0 2,7 209 - 0,0 0 999,4
04:39 13,7 12,6 13,7 93,0 3,8 212 - 0,0 0 999,4
04:38 13,7 12,6 13,7 93,0 4,3 214 - 0,0 0 999,3
04:37 13,7 12,6 13,7 93,0 4,5 214 - 0,0 0 999,3
04:36 13,7 12,6 13,7 93,0 4,4 214 - 0,0 0 999,2
04:35 13,7 12,6 13,7 93,0 4,5 215 - 0,0 0 999,2
04:34 13,7 12,6 13,7 93,0 4,4 215 - 0,0 0 999,3
04:33 13,7 12,6 13,7 93,0 4,2 212 - 0,0 0 999,3
04:32 13,7 12,6 13,7 93,0 3,3 208 - 0,0 0 999,3
04:31 13,7 12,6 13,7 93,0 3,0 207 - 0,0 0 999,3
04:30 13,7 12,6 13,7 93,0 3,7 206 - 0,0 0 999,3
04:29 13,7 12,6 13,7 93,0 4,0 205 - 0,0 0 999,3
04:28 13,7 12,6 13,7 93,0 4,6 206 - 0,0 0 999,3
04:27 13,7 12,6 13,7 93,0 4,6 211 - 0,0 0 999,3
04:26 13,7 12,6 13,7 93,0 4,4 215 - 0,0 0 999,3
04:25 13,7 12,6 13,7 93,0 4,5 219 - 0,0 0 999,2
04:24 13,7 12,6 13,7 93,0 5,0 222 - 0,0 0 999,2
04:23 13,7 12,6 13,7 93,0 5,3 223 - 0,0 0 999,3
04:22 13,7 12,6 13,7 93,0 5,3 223 - 0,0 0 999,3
04:21 13,7 12,6 13,7 93,0 5,1 220 - 0,0 0 999,2
04:20 13,7 12,6 13,7 93,0 4,8 218 - 0,0 0 999,3
04:19 13,7 12,6 13,7 93,0 4,7 217 - 0,0 0 999,2
04:18 13,7 12,6 13,7 93,0 4,7 215 - 0,0 0 999,2
04:17 13,7 12,6 13,7 93,0 4,8 215 - 0,0 0 999,2
04:16 13,7 12,6 13,7 93,0 4,9 218 - 0,0 0 999,3
04:15 13,7 12,6 13,7 93,0 4,7 221 - 0,0 0 999,3
04:14 13,7 12,6 13,7 93,0 4,7 222 - 0,0 0 999,2
04:13 13,7 12,6 13,7 93,0 4,9 221 - 0,0 0 999,2
04:12 13,7 12,6 13,7 93,0 4,6 220 - 0,0 0 999,2
04:11 13,7 12,6 13,7 93,0 4,2 219 - 0,0 0 999,2
04:10 13,7 12,6 13,7 93,0 4,0 216 - 0,0 0 999,3
04:09 13,7 12,6 13,7 93,0 4,3 215 - 0,0 0 999,3
04:08 13,7 12,6 13,7 93,0 4,7 215 - 0,0 0 999,3
04:07 13,7 12,6 13,7 93,0 5,1 215 - 0,0 0 999,3
04:06 13,7 12,6 13,7 93,0 5,3 215 - 0,0 0 999,3
04:05 13,6 12,5 13,6 93,0 5,0 215 - 0,0 0 999,3
04:04 13,6 12,5 13,6 93,0 4,7 216 - 0,0 0 999,3
04:03 13,6 12,5 13,6 93,0 4,7 216 - 0,0 0 999,3
04:02 13,6 12,5 13,6 93,0 4,8 215 - 0,0 0 999,3
04:01 13,6 12,5 13,6 93,0 4,9 216 - 0,0 0 999,3
04:00 13,7 12,6 13,7 93,0 4,8 215 - 0,0 0 999,3
 
03:59 13,7 12,6 13,7 93,0 4,8 212 - 0,0 0 999,2
03:58 13,7 12,6 13,7 93,0 4,8 209 - 0,0 0 999,2
03:57 13,7 12,6 13,7 93,0 4,4 210 - 0,0 0 999,2
03:56 13,7 12,6 13,7 93,0 3,9 214 - 0,0 0 999,2
03:55 13,7 12,6 13,7 93,0 3,5 218 - 0,0 0 999,2
03:54 13,7 12,6 13,7 93,0 3,9 221 - 0,0 0 999,2
03:53 13,7 12,6 13,7 93,0 4,2 224 - 0,0 0 999,2
03:52 13,7 12,6 13,7 93,0 3,7 225 - 0,0 0 999,2
03:51 13,7 12,6 13,7 93,0 3,3 224 - 0,0 0 999,2
03:50 13,7 12,6 13,7 93,0 3,3 220 - 0,0 0 999,2
03:49 13,8 12,7 13,8 93,0 3,2 216 - 0,0 0 999,2
03:48 13,7 12,6 13,7 93,0 3,0 211 - 0,0 0 999,1
03:47 13,7 12,6 13,7 93,0 2,8 207 - 0,0 0 999,1
03:46 13,7 12,6 13,7 93,0 2,8 204 - 0,0 0 999,1
03:45 13,7 12,6 13,7 93,0 3,1 201 - 0,0 0 999,1
03:44 13,7 12,6 13,7 93,0 3,1 199 - 0,0 0 999,1
03:43 13,8 12,7 13,8 93,0 2,9 199 - 0,0 0 999,0
03:42 13,8 12,7 13,8 93,0 2,7 201 - 0,0 0 999,1
03:41 13,8 12,7 13,8 93,0 2,4 204 - 0,0 0 999,1
03:40 13,8 12,7 13,8 93,0 2,4 205 - 0,0 0 999,1
03:39 13,8 12,7 13,8 93,0 2,7 203 - 0,0 0 999,1
03:38 13,8 12,7 13,8 93,0 2,9 203 - 0,0 0 999,1
03:37 13,8 12,7 13,8 93,0 2,9 204 - 0,0 0 999,2
03:36 13,8 12,7 13,8 93,0 2,5 205 - 0,0 0 999,1
03:35 13,8 12,7 13,8 93,0 2,3 206 - 0,0 0 999,2
03:34 13,7 12,6 13,7 93,0 2,1 207 - 0,0 0 999,1
03:33 13,7 12,6 13,7 93,0 2,2 209 - 0,0 0 999,1
03:32 13,7 12,6 13,7 93,0 2,6 209 - 0,0 0 999,2
03:31 13,7 12,5 13,7 92,7 3,0 207 - 0,0 0 999,1
03:30 13,7 12,4 13,6 92,0 3,5 207 - 0,0 0 999,2
03:29 13,7 12,4 13,6 92,0 3,7 209 - 0,0 0 999,2
03:28 13,7 12,4 13,6 92,0 3,6 212 - 0,0 0 999,1
03:27 13,7 12,4 13,6 92,0 3,3 214 - 0,0 0 999,1
03:26 13,7 12,4 13,6 92,0 3,2 216 - 0,0 0 999,1
03:25 13,7 12,4 13,6 92,0 3,3 218 - 0,0 0 999,1
03:24 13,8 12,5 13,7 92,0 3,5 219 - 0,0 0 999,1
03:23 13,7 12,4 13,6 92,0 3,4 219 - 0,0 0 999,2
03:22 13,8 12,5 13,7 92,0 3,3 219 - 0,0 0 999,2
03:21 13,8 12,5 13,7 92,0 3,3 217 - 0,0 0 999,2
03:20 13,8 12,5 13,7 92,0 3,3 212 - 0,0 0 999,3
03:19 13,8 12,5 13,7 92,0 3,5 209 - 0,0 0 999,3
03:18 13,8 12,5 13,7 92,0 3,6 207 - 0,0 0 999,3
03:17 13,8 12,5 13,7 92,0 3,5 207 - 0,0 0 999,3
03:16 13,8 12,5 13,7 92,0 3,2 208 - 0,0 0 999,3
03:15 13,8 12,5 13,7 92,0 3,2 211 - 0,0 0 999,3
03:14 13,8 12,5 13,7 92,0 2,9 215 - 0,0 0 999,2
03:13 13,8 12,5 13,7 92,0 3,2 218 - 0,0 0 999,3
03:12 13,8 12,5 13,7 92,0 3,5 218 - 0,0 0 999,3
03:11 13,8 12,5 13,7 92,0 3,7 218 - 0,0 0 999,3
03:10 13,8 12,5 13,7 92,0 3,7 216 - 0,0 0 999,3
03:09 13,8 12,5 13,7 92,0 3,7 214 - 0,0 0 999,3
03:08 13,8 12,5 13,7 92,0 3,6 212 - 0,0 0 999,3
03:07 13,8 12,5 13,7 92,0 3,0 212 - 0,0 0 999,3
03:06 13,8 12,5 13,7 92,0 2,5 210 - 0,0 0 999,3
03:05 13,8 12,5 13,7 92,0 2,4 207 - 0,0 0 999,3
03:04 13,8 12,5 13,7 92,0 2,5 205 - 0,0 0 999,3
03:03 13,8 12,5 13,7 92,0 2,5 204 - 0,0 0 999,4
03:02 13,8 12,5 13,7 92,0 2,6 201 - 0,0 0 999,4
03:01 13,8 12,5 13,7 92,0 2,8 199 - 0,0 0 999,4
03:00 13,8 12,5 13,7 92,0 2,7 198 - 0,0 0 999,4
 
02:59 13,8 12,5 13,7 92,0 2,5 199 - 0,0 0 999,4
02:58 13,7 12,4 13,6 92,0 2,5 197 - 0,0 0 999,5
02:57 13,7 12,4 13,6 92,0 2,5 193 - 0,0 0 999,5
02:56 13,7 12,4 13,6 92,0 2,3 190 - 0,0 0 999,4
02:55 13,7 12,4 13,6 92,0 2,5 190 - 0,0 0 999,5
02:54 13,7 12,4 13,6 92,0 2,6 191 - 0,0 0 999,5
02:53 13,7 12,4 13,6 92,0 2,5 193 - 0,0 0 999,4
02:52 13,7 12,4 13,6 92,0 2,2 197 - 0,0 0 999,4
02:51 13,7 12,4 13,6 92,0 2,4 204 - 0,0 0 999,4
02:50 13,7 12,4 13,6 92,0 2,8 209 - 0,0 0 999,5
02:49 13,7 12,4 13,6 92,0 3,1 210 - 0,0 0 999,5
02:48 13,7 12,4 13,6 92,0 3,0 206 - 0,0 0 999,5
02:47 13,7 12,4 13,6 92,0 2,5 201 - 0,0 0 999,5
02:46 13,7 12,4 13,6 92,0 2,3 199 - 0,0 0 999,4
02:45 13,7 12,4 13,6 92,0 2,4 198 - 0,0 0 999,5
02:44 13,7 12,4 13,6 92,0 2,3 198 - 0,0 0 999,5
02:43 13,7 12,4 13,6 92,0 2,5 199 - 0,0 0 999,5
02:42 13,7 12,4 13,6 92,0 2,7 202 - 0,0 0 999,4
02:41 13,7 12,4 13,6 92,0 2,7 204 - 0,0 0 999,4
02:40 13,7 12,4 13,6 92,0 2,9 206 - 0,0 0 999,4
02:39 13,7 12,4 13,6 92,0 2,8 206 - 0,0 0 999,4
02:38 13,7 12,4 13,6 92,0 2,6 208 - 0,0 0 999,4
02:37 13,7 12,4 13,6 92,0 2,9 209 - 0,0 0 999,4
02:36 13,7 12,4 13,6 92,0 3,6 210 - 0,0 0 999,4
02:35 13,7 12,4 13,6 92,0 3,4 210 - 0,0 0 999,4
02:34 13,7 12,4 13,6 92,0 2,9 211 - 0,0 0 999,4
02:33 13,7 12,4 13,6 92,0 2,8 211 - 0,0 0 999,4
02:32 13,7 12,4 13,6 92,0 2,5 211 - 0,0 0 999,3
02:31 13,7 12,4 13,6 92,0 2,4 213 - 0,0 0 999,4
02:30 13,7 12,4 13,6 92,0 2,3 218 - 0,0 0 999,4
02:29 13,7 12,4 13,6 92,0 2,3 222 - 0,0 0 999,4
02:28 13,7 12,4 13,6 92,0 2,3 222 - 0,0 0 999,4
02:27 13,7 12,4 13,6 92,0 2,4 219 - 0,0 0 999,4
02:26 13,7 12,4 13,6 92,0 2,2 214 - 0,0 0 999,4
02:25 13,7 12,4 13,6 92,0 2,0 206 - 0,0 0 999,5
02:24 13,7 12,4 13,6 92,0 2,2 199 - 0,0 0 999,5
02:23 13,7 12,4 13,6 92,0 2,7 195 - 0,0 0 999,5
02:22 13,7 12,4 13,6 92,0 2,9 196 - 0,0 0 999,6
02:21 13,7 12,4 13,6 92,0 2,9 198 - 0,0 0 999,6
02:20 13,7 12,4 13,6 92,0 3,1 201 - 0,0 0 999,5
02:19 13,7 12,4 13,6 92,0 3,0 206 - 0,0 0 999,6
02:18 13,7 12,4 13,6 92,0 3,0 213 - 0,0 0 999,6
02:17 13,7 12,4 13,6 92,0 3,1 218 - 0,0 0 999,6
02:16 13,7 12,4 13,6 92,0 3,5 220 - 0,0 0 999,7
02:15 13,7 12,3 13,6 91,5 3,6 221 - 0,0 0 999,7
02:14 13,7 12,3 13,5 91,0 3,5 221 - 0,0 0 999,7
02:13 13,7 12,4 13,6 91,7 3,5 219 - 0,0 0 999,6
02:12 13,7 12,3 13,5 91,2 3,5 214 - 0,0 0 999,6
02:11 13,7 12,3 13,5 91,0 3,0 208 - 0,0 0 999,7
02:10 13,7 12,3 13,5 91,0 2,6 204 - 0,0 0 999,6
02:09 13,7 12,3 13,5 91,0 2,5 202 - 0,0 0 999,6
02:08 13,7 12,3 13,5 91,0 3,0 204 - 0,0 0 999,6
02:07 13,7 12,3 13,5 91,0 3,0 207 - 0,0 0 999,6
02:06 13,7 12,3 13,5 91,0 3,1 210 - 0,0 0 999,6
02:05 13,7 12,3 13,5 91,0 3,2 214 - 0,0 0 999,6
02:04 13,7 12,3 13,5 91,0 3,6 218 - 0,0 0 999,6
02:03 13,7 12,3 13,5 91,0 3,7 219 - 0,0 0 999,6
02:02 13,7 12,3 13,5 91,0 3,4 218 - 0,0 0 999,6
02:01 13,7 12,3 13,5 91,0 2,9 215 - 0,0 0 999,6
02:00 13,7 12,3 13,5 91,0 3,1 212 - 0,0 0 999,6
 
01:59 13,7 12,3 13,5 91,0 3,2 212 - 0,0 0 999,6
01:58 13,7 12,3 13,5 91,0 3,3 211 - 0,0 0 999,6
01:57 13,7 12,3 13,5 91,0 3,5 212 - 0,0 0 999,6
01:56 13,7 12,3 13,5 91,0 3,6 214 - 0,0 0 999,6
01:55 13,7 12,3 13,5 91,0 3,2 216 - 0,0 0 999,6
01:54 13,7 12,3 13,5 91,0 3,0 219 - 0,0 0 999,6
01:53 13,7 12,3 13,5 91,0 3,1 220 - 0,0 0 999,6
01:52 13,7 12,3 13,5 91,0 3,7 223 - 0,0 0 999,6
01:51 13,7 12,3 13,5 91,0 4,1 224 - 0,0 0 999,6
01:50 13,8 12,4 13,6 91,0 4,0 222 - 0,0 0 999,6
01:49 13,8 12,4 13,6 91,0 3,3 218 - 0,0 0 999,6
01:48 13,8 12,2 13,5 90,2 1,8 216 - 0,0 0 999,6
01:47 13,8 12,2 13,5 90,0 2,0 214 - 0,0 0 999,6
01:46 13,8 12,2 13,5 90,0 1,7 211 - 0,0 0 999,6
01:45 13,8 12,2 13,5 90,0 2,1 208 - 0,0 0 999,7
01:44 13,8 12,2 13,5 90,0 2,4 212 - 0,0 0 999,7
01:43 13,8 12,2 13,5 90,0 2,7 217 - 0,0 0 999,7
01:42 13,8 12,2 13,5 90,0 3,2 220 - 0,0 0 999,7
01:41 13,8 12,2 13,5 90,0 3,7 220 - 0,0 0 999,7
01:40 13,8 12,2 13,5 90,0 4,0 221 - 0,0 0 999,7
01:39 13,8 12,2 13,5 90,0 3,9 224 - 0,0 0 999,7
01:38 13,8 12,2 13,5 90,0 3,8 228 - 0,0 0 999,8
01:37 13,9 12,3 13,6 90,0 3,6 230 - 0,0 0 999,8
01:36 13,9 12,3 13,6 90,0 3,7 229 - 0,0 0 999,8
01:35 13,9 12,3 13,6 90,0 4,1 228 - 0,0 0 999,8
01:34 14,0 12,4 13,7 90,0 4,3 228 - 0,0 0 999,8
01:33 14,0 12,4 13,7 90,0 4,2 229 - 0,0 0 999,7
01:32 14,1 12,5 13,8 90,0 4,0 230 - 0,0 0 999,8
01:31 14,1 12,5 13,8 90,0 4,6 233 - 0,0 0 999,7
01:30 14,1 12,5 13,8 89,9 5,5 238 - 0,0 0 999,7
01:29 14,1 12,3 13,7 89,0 6,5 241 - 0,0 0 999,6
01:28 14,1 12,3 13,7 89,0 7,5 241 - 0,0 0 999,6
01:27 14,1 12,3 13,7 89,0 7,9 239 - 0,0 0 999,6
01:26 14,1 12,3 13,7 89,0 7,5 238 - 0,0 0 999,6
01:25 14,1 12,3 13,7 89,0 7,4 238 - 0,0 0 999,5
01:24 14,1 12,3 13,7 89,0 6,9 237 - 0,0 0 999,6
01:23 14,1 12,3 13,7 89,0 6,5 236 - 0,0 0 999,6
01:22 14,1 12,3 13,7 89,0 6,6 238 - 0,0 0 999,6
01:21 14,1 12,3 13,7 89,0 7,1 242 - 0,0 0 999,6
01:20 14,1 12,3 13,7 89,0 7,2 246 - 0,0 0 999,6
01:19 14,1 12,3 13,7 89,0 7,3 250 - 0,0 0 999,5
01:18 14,1 12,3 13,7 89,0 7,6 252 - 0,0 0 999,6
01:17 14,1 12,3 13,7 89,0 8,5 252 - 0,0 0 999,6
01:16 14,1 12,3 13,7 89,0 8,2 250 - 0,0 0 999,6
01:15 14,1 12,3 13,7 89,0 7,9 247 - 0,0 0 999,7
01:14 14,0 12,2 13,6 89,0 8,1 243 - 0,0 0 999,7
01:13 13,9 12,0 13,4 88,2 8,1 239 - 0,0 0 999,7
01:12 13,9 11,9 13,4 88,0 8,5 241 - 0,0 0 999,6
01:11 13,9 11,9 13,4 88,0 8,6 245 - 0,0 0 999,7
01:10 13,9 12,0 13,4 88,5 8,7 248 - 0,0 0 999,6
01:09 14,0 12,2 13,6 89,0 8,7 250 - 0,0 0 999,7
01:08 14,0 12,2 13,6 89,0 8,2 252 - 0,0 0 999,7
01:07 14,1 12,3 13,7 89,0 8,4 252 - 0,0 0 999,7
01:06 14,1 12,3 13,7 89,0 8,7 247 - 0,0 0 999,8
01:05 14,1 12,3 13,7 89,0 8,3 243 - 0,0 0 999,8
01:04 14,2 12,5 13,9 89,5 8,1 242 - 0,0 0 999,7
01:03 14,3 12,7 14,0 90,0 8,3 242 - 0,0 0 999,7
01:02 14,3 12,6 13,9 89,3 7,9 242 - 0,0 0 999,7
01:01 14,1 12,3 13,7 89,0 8,0 243 - 0,0 0 999,7
01:00 14,1 12,3 13,7 89,0 8,2 246 - 0,0 0 999,6
 
00:59 14,1 12,3 13,7 89,0 8,5 248 - 0,0 0 999,6
00:58 14,1 12,3 13,7 89,0 8,3 248 - 0,0 0 999,6
00:57 14,1 12,3 13,7 89,0 8,4 247 - 0,0 0 999,6
00:55 14,2 12,4 13,8 89,0 8,3 247 - 0,0 0 999,6
00:54 14,2 12,4 13,8 89,2 8,4 245 - 0,0 0 999,6
00:53 14,2 12,6 13,9 90,0 8,0 241 - 0,0 0 999,6
00:52 14,1 12,4 13,8 89,5 7,8 239 - 0,0 0 999,6
00:51 14,0 12,2 13,6 89,0 7,9 240 - 0,0 0 999,6
00:50 13,9 12,1 13,5 89,1 8,1 243 - 0,0 0 999,7
00:49 13,9 12,3 13,6 90,0 8,2 245 - 0,0 0 999,6
00:48 14,0 12,4 13,7 90,0 8,7 248 - 0,0 0 999,6
00:47 14,0 12,4 13,7 90,0 8,6 251 - 0,0 0 999,6
00:46 14,0 12,4 13,7 90,0 8,7 252 - 0,0 0 999,6
00:45 14,1 12,6 13,9 90,7 8,7 251 - 0,0 0 999,6
00:44 14,1 12,5 13,8 90,3 8,6 246 - 0,0 0 999,6
00:43 14,1 12,7 13,9 91,0 8,6 240 - 0,0 0 999,6
00:42 14,1 12,7 13,9 91,0 7,6 237 - 0,0 0 999,6
00:41 14,1 12,7 13,9 91,0 7,5 237 - 0,0 0 999,6
00:40 14,1 12,7 13,9 91,0 7,6 239 - 0,0 0 999,6
00:39 14,1 12,7 13,9 91,0 8,5 242 - 0,0 0 999,6
00:38 14,1 12,7 13,9 91,0 9,0 245 - 0,0 0 999,6
00:37 14,2 12,8 14,0 91,0 8,4 249 - 0,0 0 999,6
00:36 14,2 12,8 14,0 91,0 8,0 250 - 0,0 0 999,5
00:35 14,1 12,7 13,9 91,0 8,4 248 - 0,0 0 999,5
00:34 14,1 12,7 13,9 91,0 9,3 246 - 0,0 0 999,4
00:33 14,1 12,7 13,9 91,0 9,5 245 - 0,0 0 999,4
00:32 14,1 12,7 13,9 91,0 9,1 243 - 0,0 0 999,4
00:31 14,1 12,7 13,9 91,0 8,1 242 - 0,0 0 999,6
00:30 14,1 12,7 13,9 91,0 6,5 239 - 0,0 0 999,7
00:29 14,1 12,7 13,9 91,0 4,8 236 - 0,0 0 999,7
00:28 14,2 12,8 14,0 91,0 3,9 230 - 0,0 0 999,7
00:27 14,2 12,8 14,0 91,0 4,0 226 - 0,0 0 999,7
00:26 14,2 12,8 14,0 91,0 4,8 227 - 0,0 0 999,6
00:25 14,2 12,8 14,0 91,0 6,2 232 - 0,0 0 999,6
00:24 14,0 12,6 13,8 91,0 8,2 237 - 0,0 0 999,4
00:23 14,0 12,6 13,8 91,0 9,4 241 - 0,0 0 999,4
00:22 14,0 12,6 13,8 91,0 9,8 242 - 0,0 0 999,4
00:21 14,1 12,7 13,9 91,0 10,0 241 - 0,0 0 999,4
00:20 14,1 12,7 13,9 91,0 9,8 237 - 0,0 0 999,3
00:19 14,1 12,7 13,9 91,0 8,6 234 - 0,0 0 999,4
00:18 14,1 12,7 13,9 91,0 8,2 233 - 0,0 0 999,4
00:17 14,0 12,6 13,8 91,0 8,5 235 - 0,0 0 999,4
00:16 14,0 12,6 13,8 91,0 8,9 237 - 0,0 0 999,4
00:15 14,0 12,6 13,8 91,0 9,8 240 - 0,0 0 999,4
00:14 14,0 12,7 13,9 91,9 9,7 242 - 0,0 0 999,4
00:13 14,0 12,7 13,9 92,0 9,7 244 - 0,0 0 999,3
00:12 14,0 12,7 13,9 92,0 9,8 246 - 0,0 0 999,3
00:11 14,0 12,7 13,9 92,0 9,5 247 13,0 0,0 0 999,3
00:10 14,0 12,7 13,9 92,0 9,1 248 - 0,0 0 999,4
00:09 13,9 12,6 13,8 92,0 9,7 250 - 0,0 0 999,3
00:08 13,9 12,6 13,8 92,0 9,5 251 - 0,0 0 999,3
00:07 13,9 12,6 13,8 92,0 9,5 251 - 0,0 0 999,3
00:06 14,0 12,7 13,9 92,0 9,6 247 - 0,0 0 999,3
00:05 14,0 12,7 13,9 92,0 9,2 243 - 0,0 0 999,3
00:04 14,0 12,8 14,0 92,7 9,0 240 - 0,0 0 999,3
00:03 14,0 12,7 13,9 92,1 9,0 239 - 0,0 0 999,3
00:02 13,9 12,6 13,8 92,1 8,5 240 - 0,0 0 999,4
00:01 13,9 12,8 13,9 93,0 8,5 241 - 0,0 0 999,4
00:00 13,9 12,8 13,9 93,0 8,8 242 - 0,0 0 999,4
 
23:59 13,9 12,8 13,9 93,0 8,9 244 - 6,4 0 999,4
23:58 13,8 12,6 13,8 92,3 8,4 244 - 6,4 0 999,4
23:57 13,8 12,5 13,7 92,0 8,6 243 - 6,4 0 999,4
23:56 13,9 12,6 13,8 92,1 8,8 241 - 6,4 0 999,4
23:55 13,9 12,8 13,9 93,0 9,1 242 - 6,4 0 999,4
23:54 14,0 12,9 13,6 93,0 8,8 243 - 6,4 0 999,4
23:53 13,9 12,8 13,9 93,0 7,6 244 - 6,4 0 999,4
23:52 13,8 12,7 13,8 93,0 7,5 246 - 6,4 0 999,3
23:51 13,8 12,6 13,7 92,2 8,4 250 - 6,4 0 999,2
23:50 13,8 12,5 13,7 92,0 8,9 253 - 6,4 0 999,3
23:49 13,8 12,6 13,8 92,5 9,2 255 - 6,4 0 999,3
23:48 13,8 12,6 13,8 92,6 9,4 256 - 6,4 0 999,3
23:47 13,8 12,6 13,8 92,6 9,2 256 - 6,4 0 999,2
23:46 13,9 12,8 13,9 93,0 9,1 255 - 6,4 0 999,2
23:45 13,9 12,8 13,9 93,0 8,6 253 - 6,4 0 999,3
23:44 13,9 12,8 13,9 93,0 8,3 251 - 6,4 0 999,3
23:43 13,9 12,8 13,9 93,0 8,4 249 - 6,4 0 999,2
23:42 13,9 12,7 13,9 92,4 8,7 247 - 6,4 0 999,2
23:41 14,0 12,8 14,0 92,6 8,8 247 - 6,4 0 999,2
23:40 14,0 12,9 13,6 93,0 8,4 248 - 6,4 0 999,2
23:39 13,9 12,6 13,8 92,1 8,2 249 - 6,4 0 999,2
23:38 13,9 12,7 13,9 92,2 8,6 251 - 6,4 0 999,2
23:37 14,0 12,9 13,6 93,0 8,9 251 - 6,4 0 999,3
23:36 14,0 12,8 14,0 92,5 8,6 250 - 6,4 0 999,2
23:35 13,9 12,6 13,8 92,0 7,9 250 - 6,4 0 999,2
23:34 13,9 12,6 13,8 92,0 7,8 252 - 6,4 0 999,1
23:33 13,9 12,6 13,8 92,0 7,8 252 - 6,4 0 999,1
23:32 13,9 12,6 13,8 92,0 8,3 252 - 6,4 0 999,1
23:31 13,9 12,6 13,8 92,0 8,5 254 - 6,4 0 999,2
23:30 13,9 12,6 13,8 92,0 8,5 256 - 6,4 0 999,1
23:29 13,9 12,6 13,8 92,0 8,1 254 - 6,4 0 999,1
23:28 13,9 12,6 13,8 92,0 8,0 252 - 6,4 0 999,0
23:27 14,0 12,7 13,9 92,0 8,2 252 - 6,4 0 999,1
23:26 14,0 12,8 14,0 92,3 8,9 253 - 6,4 0 999,0
23:25 14,0 12,9 13,6 93,0 9,0 254 - 6,4 0 999,1
23:24 14,0 12,9 13,6 93,0 8,8 255 - 6,4 0 999,1
23:23 14,0 12,9 13,6 93,0 8,6 258 - 6,4 0 999,1
23:22 14,0 12,9 13,6 93,0 8,6 262 - 6,4 0 999,1
23:21 13,9 12,6 13,8 92,1 8,8 264 - 6,4 0 999,0
23:20 13,8 12,5 13,7 92,0 9,4 265 - 6,4 0 999,0
23:19 13,9 12,7 13,9 92,4 9,5 265 - 6,4 0 999,0
23:18 13,9 12,7 13,9 92,5 9,4 266 - 6,4 0 999,0
23:17 13,9 12,7 13,9 92,7 9,4 265 - 6,4 0 999,0
23:16 13,9 12,8 13,9 93,0 9,5 263 - 6,4 0 999,0
23:15 14,0 12,9 13,6 93,0 9,6 262 - 6,4 0 999,0
23:14 14,0 12,9 13,6 93,0 9,7 261 - 6,4 0 999,0
23:13 14,0 12,9 13,6 93,0 9,8 259 - 6,4 0 999,0
23:12 14,0 12,9 13,6 93,0 9,5 256 - 6,4 0 999,0
23:11 14,1 13,0 13,7 93,0 9,0 253 - 6,4 0 999,0
23:10 14,1 13,0 13,7 93,0 8,7 252 - 6,4 0 999,0
23:09 14,1 13,0 13,7 93,0 8,3 254 - 6,4 0 999,0
23:08 14,1 13,0 13,7 93,0 8,0 258 - 6,4 0 998,9
23:07 14,1 13,0 13,7 93,0 7,8 261 - 6,4 0 998,9
23:06 14,1 13,0 13,7 93,0 8,6 263 - 6,4 0 998,8
23:05 14,0 12,9 13,6 93,0 8,8 265 - 6,4 0 998,8
23:04 14,0 12,9 13,6 93,0 9,0 266 - 6,4 0 998,8
23:03 13,9 12,8 13,9 93,0 9,2 265 - 6,4 0 998,8
23:02 13,9 12,8 13,9 93,0 9,5 264 - 6,4 0 998,8
23:01 13,8 12,7 13,8 93,0 9,8 264 - 6,4 0 998,8
23:00 13,8 12,7 13,8 93,0 9,9 265 - 6,4 0 998,7
 
22:59 13,9 12,8 13,9 93,0 9,8 266 - 6,4 0 998,7
22:58 13,9 12,8 13,9 93,0 9,6 266 - 6,4 0 998,7
22:57 14,0 12,9 13,6 93,0 9,2 265 - 6,4 0 998,7
22:56 14,0 12,9 13,6 93,0 9,0 263 - 6,4 0 998,8
22:55 14,0 12,9 13,6 93,0 8,9 260 - 6,4 0 998,8
22:54 13,9 12,8 13,9 93,0 8,8 256 - 6,4 0 998,8
22:53 13,8 12,7 13,8 93,0 8,7 254 - 6,4 0 998,8
22:52 13,9 12,8 13,9 93,0 8,9 251 - 6,4 0 998,8
22:51 13,9 12,8 13,9 93,0 9,0 250 - 6,4 0 998,8
22:50 13,9 12,8 13,9 93,0 8,7 251 - 6,4 0 998,8
22:49 13,8 12,7 13,8 93,0 8,1 254 - 6,4 0 998,8
22:48 13,8 12,7 13,8 93,0 7,9 257 - 6,4 0 998,8
22:47 13,8 12,7 13,8 93,0 8,1 259 - 6,4 0 998,8
22:46 13,8 12,7 13,8 93,0 8,3 261 - 6,4 0 998,8
22:45 13,8 12,7 13,8 93,0 8,9 261 - 6,4 0 998,8
22:44 13,8 12,7 13,8 93,0 9,1 257 - 6,4 0 998,8
22:43 13,8 12,7 13,8 93,0 9,3 253 - 6,4 0 998,8
22:42 13,8 12,7 13,8 93,0 8,7 251 - 6,4 0 998,8
22:40 13,9 12,8 13,9 93,0 8,4 249 - 6,4 0 998,8
22:39 13,9 12,8 13,9 93,0 8,4 248 - 6,4 0 998,8
22:38 13,8 12,7 13,8 93,0 9,2 250 - 6,4 0 998,8
22:37 13,9 12,8 13,9 93,0 9,2 254 - 6,4 0 998,8
22:36 14,0 12,9 13,6 93,0 9,0 259 - 6,4 0 998,7
22:35 14,1 13,0 13,7 93,0 8,8 264 - 6,4 0 998,7
22:34 14,0 12,9 13,6 93,0 8,5 267 - 6,4 0 998,8
22:33 14,0 12,9 13,6 93,0 8,3 269 - 6,4 0 998,8
22:32 14,0 12,9 13,6 93,0 8,5 266 - 6,4 0 998,7
22:31 14,1 13,0 13,7 93,0 8,6 262 - 6,4 0 998,8
22:30 14,0 12,9 13,6 93,0 7,2 260 - 6,4 0 998,8
22:29 14,0 12,9 13,6 93,0 6,8 257 10,3 6,4 0 998,7
22:28 13,9 12,8 13,9 93,0 7,2 253 10,7 6,4 0 998,7
22:27 14,1 13,0 13,7 93,0 8,7 252 - 6,4 0 998,7
22:26 14,1 13,0 13,7 93,0 7,6 254 - 6,4 0 998,7
22:25 14,1 13,0 13,7 93,0 7,3 257 - 6,4 0 998,7
22:24 14,1 13,0 13,7 93,0 8,0 257 - 6,4 0 998,6
22:23 14,2 13,1 13,8 93,0 9,3 255 - 6,4 0 998,6
22:22 14,3 13,2 13,9 93,0 9,4 254 - 6,4 0 998,5
22:21 14,3 13,2 13,9 93,3 8,5 255 - 6,4 0 998,5
22:20 14,2 13,2 13,9 94,0 8,1 256 - 6,4 0 998,5
22:19 14,2 13,2 13,9 94,0 8,1 255 - 6,4 0 998,5
22:18 14,1 13,1 13,8 94,0 8,6 255 - 6,4 0 998,5
22:17 14,1 13,1 13,8 94,0 8,6 257 - 6,4 0 998,5
22:16 14,1 13,1 13,8 94,0 8,5 262 - 6,4 0 998,5
22:15 14,1 13,1 13,8 94,0 8,3 266 - 6,4 0 998,5
22:14 14,1 13,1 13,8 94,0 8,6 270 - 6,4 0 998,5
22:13 14,1 13,1 13,8 94,0 8,1 273 - 6,4 0 998,5
22:12 14,1 13,1 13,8 94,0 7,5 277 - 6,4 0 998,4
22:11 14,0 13,0 13,7 94,0 7,0 279 - 6,4 0 998,4
22:10 13,9 12,9 13,6 94,0 7,1 278 - 6,4 0 998,4
22:09 13,9 12,9 13,6 94,0 7,2 277 - 6,4 0 998,4
22:08 13,9 12,9 13,6 94,0 7,0 276 - 6,4 0 998,4
22:07 14,0 13,0 13,7 94,0 6,7 275 - 6,4 0 998,4
22:06 14,0 13,0 13,7 94,0 6,6 276 - 6,4 0 998,4
22:05 14,0 13,0 13,7 94,0 6,1 276 - 6,4 0 998,3
22:04 13,9 12,9 13,6 94,0 5,7 277 - 6,4 0 998,3
22:03 13,9 12,9 13,6 94,0 5,8 278 - 6,4 0 998,3
22:02 14,0 13,0 13,7 94,0 5,9 278 - 6,4 0 998,3
22:01 13,9 12,9 13,6 94,0 5,7 278 - 6,4 0 998,3
22:00 13,9 12,9 13,6 94,0 5,7 279 - 6,4 0 998,2
 
21:59 13,9 12,9 13,6 94,0 6,0 280 - 6,4 0 998,2
21:58 13,9 12,9 13,6 94,0 6,1 283 - 6,4 0 998,2
21:57 13,9 12,9 13,6 94,0 5,6 285 - 6,4 0 998,2
21:56 13,9 12,9 13,6 94,0 5,0 287 - 6,4 0 998,2
21:55 13,9 12,9 13,6 94,0 4,8 290 - 6,4 0 998,2
21:54 13,9 12,9 13,6 94,0 4,5 293 - 6,4 0 998,2
21:53 13,9 12,9 13,6 94,0 4,0 296 - 6,4 0 998,1
21:52 13,9 12,9 13,6 94,0 3,3 298 - 6,4 0 998,1
21:51 13,9 12,9 13,6 94,0 2,9 300 - 6,4 0 998,1
21:50 13,8 12,9 13,5 94,0 3,0 301 - 6,4 0 998,1
21:49 13,8 12,9 13,5 94,0 3,4 300 - 6,4 0 998,1
21:48 13,9 12,9 13,6 94,0 4,0 298 - 6,4 0 998,1
21:47 13,9 12,9 13,6 94,0 4,6 295 - 6,4 0 998,1
21:46 13,9 12,9 13,6 94,0 4,8 293 - 6,4 0 998,1
21:45 13,8 12,9 13,5 94,0 5,1 291 - 6,4 0 998,1
21:44 13,9 12,9 13,6 94,0 5,6 290 - 6,4 0 998,1
21:43 13,9 12,9 13,6 94,0 5,9 289 - 6,4 0 998,1
21:42 13,9 12,9 13,6 94,0 5,8 290 - 6,4 0 998,0
21:41 13,9 12,9 13,6 94,0 5,6 290 - 6,4 0 998,0
21:40 13,8 12,9 13,5 94,0 5,5 291 - 6,4 0 998,0
21:39 13,8 12,9 13,5 94,0 5,5 292 - 6,4 0 997,9
21:38 13,8 12,9 13,5 94,0 5,5 293 - 6,4 0 998,0
21:37 13,8 12,9 13,5 94,0 5,5 293 - 6,4 0 998,0
21:36 13,9 12,9 13,6 94,0 5,5 293 - 6,4 0 997,9
21:35 13,8 12,9 13,5 94,0 5,3 293 - 6,4 0 998,0
21:34 13,8 12,9 13,5 94,0 5,3 292 - 6,4 0 998,0
21:33 13,8 12,9 13,5 94,0 5,7 291 - 6,4 0 998,0
21:32 13,9 12,9 13,6 94,0 6,1 291 - 6,4 0 998,0
21:31 13,9 12,9 13,6 94,0 6,1 291 - 6,4 0 998,0
21:30 13,9 12,9 13,6 94,0 5,6 292 - 6,4 0 998,0
21:29 13,9 12,9 13,6 94,0 5,3 294 - 6,4 0 998,0
21:28 13,9 12,9 13,6 94,0 5,3 296 - 6,4 0 998,0
21:27 13,9 12,9 13,6 94,0 5,3 299 - 6,4 0 998,0
21:26 14,0 13,0 13,7 94,0 5,3 300 - 6,4 0 998,0
21:25 13,9 12,9 13,6 94,0 5,2 301 - 6,4 0 998,0
21:24 13,9 12,9 13,6 94,0 5,2 300 - 6,4 0 998,0
21:23 13,9 12,9 13,6 94,0 5,2 299 - 6,4 0 998,0
21:22 13,9 12,9 13,6 94,0 5,4 298 - 6,4 0 997,9
21:21 13,8 12,9 13,5 94,0 5,7 297 - 6,4 0 997,9
21:20 13,9 12,9 13,6 94,0 5,9 297 - 6,4 0 997,9
21:19 13,9 12,9 13,6 94,0 6,1 297 - 6,4 0 997,8
21:18 13,9 12,9 13,6 94,0 6,1 298 - 6,4 0 997,9
21:17 13,9 12,9 13,6 94,0 6,0 298 - 6,4 0 997,9
21:16 13,9 12,9 13,6 94,0 6,0 300 - 6,4 0 997,8
21:15 13,9 12,9 13,6 94,0 5,9 301 - 6,4 0 997,8
21:14 14,0 13,0 13,7 94,0 5,7 303 - 6,4 0 997,8
21:13 13,9 12,9 13,6 94,0 5,7 304 - 6,4 0 997,8
21:12 13,9 12,9 13,6 94,0 5,9 305 - 6,4 0 997,8
21:11 13,9 12,9 13,6 94,0 6,4 304 - 6,4 0 997,8
21:10 14,0 13,0 13,7 94,0 6,6 303 - 6,4 0 997,8
21:09 14,0 13,0 13,7 94,0 6,5 303 - 6,4 0 997,7
21:08 13,9 12,9 13,6 94,0 6,3 303 - 6,4 0 997,7
21:07 13,8 12,9 13,5 94,0 6,5 303 - 6,4 0 997,7
21:06 13,8 12,9 13,5 94,0 7,3 302 - 6,4 0 997,7
21:05 13,8 12,9 13,5 94,0 8,0 301 - 6,4 0 997,7
21:04 13,8 12,9 13,5 94,0 8,3 300 - 6,4 0 997,6
21:03 13,9 12,9 13,6 94,0 8,2 298 - 6,4 0 997,7
21:02 13,9 12,9 13,6 94,0 7,9 295 - 6,4 0 997,7
21:01 13,9 12,9 13,6 94,0 7,9 292 - 6,4 0 997,7
21:00 13,9 12,9 13,6 94,0 7,9 290 - 6,4 0 997,6
 
20:59 13,8 12,9 13,5 94,0 8,0 290 - 6,4 0 997,6
20:58 13,9 12,9 13,6 94,0 8,2 291 - 6,4 0 997,5
20:57 13,9 12,9 13,6 94,0 8,2 291 - 6,4 5 997,6
20:56 13,9 12,9 13,6 94,0 8,0 291 - 6,4 4 997,6
20:55 13,8 12,9 13,5 94,0 8,1 292 11,6 6,4 0 997,6
20:54 13,9 12,9 13,6 94,0 8,1 293 - 6,2 0 997,6
20:53 13,9 12,9 13,6 94,0 7,8 293 - 6,2 0 997,6
20:52 13,9 12,9 13,6 94,0 7,8 295 - 6,2 0 997,6
20:51 13,9 12,9 13,6 94,0 7,8 296 - 6,2 0 997,5
20:50 13,9 12,9 13,6 94,0 7,8 299 - 6,2 0 997,5
20:49 13,9 12,9 13,6 94,0 7,8 301 - 6,2 0 997,5
20:48 14,0 13,0 13,7 94,0 8,1 303 - 6,2 0 997,4
20:47 14,0 13,0 13,7 94,0 8,2 304 - 6,2 4 997,5
20:46 14,0 13,0 13,7 94,0 8,5 305 - 6,2 5 997,3
20:45 14,1 13,1 13,8 94,0 8,5 305 - 6,2 5 997,3
20:44 14,1 13,1 13,8 94,0 8,3 306 - 6,2 5 997,4
20:43 14,1 13,1 13,8 94,0 8,0 305 - 6,2 5 997,3
20:42 14,1 13,1 13,8 94,0 8,0 304 - 6,2 6 997,3
20:41 14,1 13,1 13,8 94,0 8,2 304 - 6,2 7 997,3
20:40 14,1 13,1 13,8 94,0 8,6 302 - 6,2 7 997,2
20:39 14,2 13,2 13,9 94,0 9,2 300 - 6,2 7 997,2
20:38 14,2 13,2 13,9 94,0 8,9 297 - 6,2 7 997,2
20:37 14,1 13,1 13,8 94,0 8,2 296 - 6,2 8 997,2
20:36 14,1 13,1 13,8 94,0 8,1 296 - 6,2 10 997,3
20:35 14,1 13,1 13,8 94,0 8,9 297 - 6,2 11 997,2
20:34 14,2 13,2 13,9 94,0 9,4 298 - 6,2 11 997,2
20:33 14,2 13,2 13,9 94,0 9,2 299 - 6,2 11 997,2
20:32 14,3 13,3 14,0 94,0 9,0 299 - 6,2 11 997,2
20:31 14,3 13,3 14,0 94,0 8,8 299 - 6,2 10 997,1
20:30 14,3 13,3 14,0 94,0 8,3 299 - 6,2 11 997,2
20:29 14,3 13,3 14,0 94,0 8,1 299 - 6,2 12 997,2
20:28 14,3 13,3 14,0 94,0 8,3 299 - 6,2 11 997,0
20:27 14,3 13,3 14,0 94,0 8,4 298 - 6,2 11 997,0
20:25 14,3 13,3 14,0 94,0 8,6 298 - 6,2 9 997,0
20:24 14,3 13,3 14,0 94,0 8,5 298 - 6,2 8 997,0
20:23 14,3 13,3 14,0 94,0 8,6 298 - 6,2 7 997,0
20:22 14,3 13,3 14,0 94,0 8,8 298 - 6,2 7 997,0
20:21 14,3 13,3 14,0 94,0 9,3 298 - 6,2 8 997,0
20:20 14,4 13,4 14,1 94,0 9,2 299 - 6,2 5 997,0
20:19 14,4 13,4 14,1 94,0 9,1 301 - 6,2 5 997,1
20:18 14,4 13,4 14,1 94,0 9,0 302 - 6,2 5 997,1
20:17 14,4 13,4 14,1 94,0 8,9 302 - 6,2 1 997,0
20:16 14,5 13,5 14,2 94,0 8,8 301 - 6,2 4 997,1
20:15 14,5 13,5 14,2 94,0 8,3 300 - 6,2 2 997,1
20:14 14,5 13,5 14,2 94,0 7,8 300 - 6,2 7 997,1
20:13 14,5 13,5 14,2 94,0 7,8 299 - 6,2 6 997,2
20:12 14,6 13,6 14,3 94,0 7,9 299 - 6,2 1 997,2
20:11 14,6 13,6 14,3 94,0 7,7 299 - 6,2 4 997,1
20:10 14,5 13,5 14,2 94,0 7,5 301 - 6,2 5 997,2
20:09 14,5 13,5 14,2 94,0 7,7 303 - 6,2 6 997,1
20:08 14,5 13,5 14,2 94,0 8,0 305 - 6,2 8 997,1
20:07 14,5 13,5 14,2 94,0 8,2 307 - 6,2 8 997,0
20:06 14,4 13,4 14,1 94,0 8,5 309 - 6,2 7 997,0
20:05 14,4 13,4 14,1 94,0 8,6 309 - 6,2 5 997,0
20:04 14,4 13,4 14,1 94,0 8,7 309 - 6,2 9 997,1
20:03 14,5 13,5 14,2 94,0 8,6 309 - 6,2 10 997,0
20:02 14,5 13,5 14,2 94,0 8,7 309 - 6,2 12 997,0
20:01 14,5 13,5 14,2 94,0 8,6 309 - 6,2 14 997,0
20:00 14,5 13,5 14,2 94,0 8,6 309 - 6,2 17 997,0
 
19:59 14,5 13,5 14,2 94,0 8,8 310 - 6,2 15 996,9
19:58 14,5 13,5 14,2 94,0 8,8 311 - 6,2 12 996,9
19:57 14,5 13,5 14,2 94,0 8,4 312 - 6,2 14 997,0
19:56 14,5 13,5 14,2 94,0 8,3 314 - 6,2 19 997,0
19:55 14,5 13,5 14,2 94,0 8,4 316 - 6,2 21 996,9
19:54 14,5 13,5 14,2 94,0 8,5 318 - 6,2 25 996,9
19:53 14,5 13,5 14,2 94,0 8,7 320 - 6,2 26 996,8
19:52 14,5 13,5 14,2 94,0 8,9 323 - 6,2 32 996,8
19:51 14,6 13,6 14,3 94,0 8,9 325 - 6,2 34 996,8
19:50 14,6 13,6 14,3 94,0 8,8 325 - 6,2 34 996,8
19:49 14,6 13,6 14,3 94,0 8,6 325 - 6,2 30 996,9
19:48 14,5 13,5 14,2 94,0 8,2 324 - 6,2 26 996,9
19:47 14,5 13,5 14,2 94,0 8,2 321 - 6,2 21 996,9
19:46 14,6 13,6 14,3 94,0 8,3 319 - 6,2 18 997,0
19:45 14,6 13,6 14,3 94,0 8,7 316 - 6,2 15 997,0
19:44 14,6 13,6 14,3 94,0 8,8 315 - 6,2 13 997,0
19:43 14,6 13,6 14,3 94,0 9,0 314 - 6,2 12 997,0
19:42 14,7 13,7 14,4 94,0 9,1 313 - 6,2 14 997,0
19:41 14,7 13,7 14,4 94,0 9,2 311 - 6,2 12 997,0
19:40 14,7 13,7 14,4 94,0 9,0 310 - 6,2 17 996,9
19:39 14,8 13,8 14,5 94,0 8,4 309 - 6,2 24 996,9
19:38 14,8 13,8 14,5 94,0 8,2 309 - 6,2 25 996,8
19:37 14,8 13,8 14,5 94,0 8,7 308 - 6,2 25 996,8
19:36 14,9 13,9 14,6 94,0 9,3 307 - 6,2 25 996,8
19:35 14,9 13,8 14,5 93,4 8,8 308 - 6,2 21 996,8
19:34 15,0 13,9 14,6 93,0 8,8 309 - 6,2 22 996,8
19:33 15,1 14,1 14,8 93,9 9,2 309 - 6,2 24 996,8
19:32 15,2 14,2 14,9 93,8 9,3 309 - 6,2 21 996,8
19:31 15,2 14,1 14,8 93,0 9,1 310 - 6,2 16 996,8
19:30 15,2 14,1 14,8 93,0 9,2 311 - 6,2 14 996,6
19:29 15,3 14,2 14,9 93,0 9,6 311 - 6,2 16 996,5
19:28 15,3 14,2 14,9 93,0 9,6 308 - 6,2 18 996,5
19:27 15,4 14,3 15,0 93,0 9,2 306 - 6,2 19 996,6
19:26 15,5 14,4 15,1 93,0 8,8 306 - 6,2 19 996,5
19:25 15,7 14,6 15,3 93,0 8,5 307 - 6,2 17 996,5
19:24 15,8 14,7 15,4 93,0 8,3 309 - 6,2 18 996,4
19:23 15,8 14,7 15,4 93,0 8,5 312 - 6,2 19 996,5
19:22 15,8 14,7 15,4 93,0 8,3 316 - 6,2 20 996,5
19:21 15,8 14,7 15,4 93,0 8,2 319 - 6,2 20 996,5
19:20 15,8 14,7 15,4 93,0 8,2 320 - 6,2 19 996,5
19:19 15,8 14,7 15,4 93,0 8,1 321 - 6,2 17 996,4
19:18 15,9 14,8 15,5 93,0 8,1 322 - 6,0 12 996,4
19:17 15,9 14,8 15,5 93,0 8,2 321 - 6,0 11 996,4
19:16 15,9 14,8 15,5 93,0 7,8 320 - 6,0 10 996,5
19:15 15,9 14,8 15,5 93,0 7,5 319 - 5,8 9 996,5
19:14 15,9 14,8 15,5 93,0 7,5 319 - 5,8 9 996,5
19:13 15,9 14,8 15,5 93,0 7,7 318 - 5,4 9 996,5
19:12 15,9 14,8 15,5 93,0 7,8 319 - 5,2 9 996,4
19:11 15,9 14,8 15,5 93,0 7,6 320 - 5,0 9 996,5
19:10 15,9 14,8 15,5 93,0 7,3 320 - 4,8 7 996,6
19:09 16,0 14,9 15,6 93,0 7,1 317 - 4,6 6 996,6
19:08 16,0 14,9 15,6 93,0 6,9 313 - 4,6 5 996,6
19:07 16,0 14,8 15,6 92,6 6,6 310 - 4,4 5 996,6
19:06 16,0 14,7 15,6 92,0 7,0 308 - 4,4 1 996,5
19:05 16,0 14,7 15,6 92,0 7,3 306 - 4,4 0 996,5
19:04 16,0 14,7 15,6 92,0 7,2 304 - 4,2 0 996,5
19:03 16,1 14,8 15,7 92,0 7,0 303 - 4,2 0 996,5
19:02 16,2 14,9 15,8 92,0 7,4 304 - 4,0 0 996,5
19:01 16,3 15,0 15,9 92,0 8,0 304 - 4,0 0 996,5
19:00 16,4 15,1 16,0 92,0 7,8 304 - 3,8 0 996,4
 
18:59 16,4 15,1 16,0 92,0 7,4 305 - 3,8 0 996,5
18:58 16,4 15,2 16,0 92,9 6,7 309 - 3,8 0 996,4
18:57 16,5 15,4 16,1 93,0 6,0 309 - 3,8 0 996,4
18:56 16,5 15,4 16,1 93,0 6,8 319 - 3,8 0 996,3
18:55 16,5 15,4 16,1 93,0 6,7 321 - 3,8 0 996,3
18:54 16,5 15,4 16,1 93,0 7,1 328 - 3,8 0 996,3
18:53 16,5 15,4 16,1 93,0 7,2 326 - 3,8 0 996,4
18:52 16,4 15,1 16,0 92,1 6,6 313 - 3,8 0 996,4
18:51 16,3 15,0 15,9 92,0 6,8 318 - 3,8 0 996,4
18:50 16,3 15,0 15,9 92,0 6,3 317 - 3,8 4 996,3
18:49 16,2 14,9 15,8 92,0 6,4 323 - 3,8 10 996,3
18:48 16,2 14,9 15,8 92,0 5,6 333 - 3,8 15 996,1
18:47 16,1 14,8 15,7 92,0 6,0 328 - 3,8 18 995,9
18:46 16,1 14,8 15,7 92,0 5,8 333 - 3,8 21 995,9
18:45 16,1 14,8 15,7 92,0 5,7 324 - 3,8 25 995,8
18:44 16,2 14,9 15,8 92,0 6,1 333 - 3,8 31 995,8
18:43 16,3 15,0 15,9 92,0 6,7 349 - 3,8 39 995,8